Observation data for Estelline on 12/07/2018      Previous  Date       Current Mesonet Observations  Soil Data  Daily Summary Page  Observations in Plain Language
KES1 070600Z 05007KT 03/M03 A3034 RMK A01 T00281030  RH  066%=      5-min Rain = 0
KES1 070601Z 04007KT 03/M03 A3034 RMK A01 T00281029  RH  066%=      5-min Rain = 0
KES1 070602Z 03007KT 03/M03 A3034 RMK A01 T00281030  RH  066%=      5-min Rain = 0
KES1 070603Z 04007KT 03/M03 A3034 RMK A01 T00281031  RH  065%=      5-min Rain = 0
KES1 070604Z 03008KT 03/M03 A3034 RMK A01 T00281032  RH  065%=      5-min Rain = 0
KES1 070605Z 04008KT 03/M03 A3034 RMK A01 T00281033  RH  064%=      5-min Rain = 0
KES1 070606Z 04008KT 03/M03 A3034 RMK A01 T00281033  RH  064%=      5-min Rain = 0
KES1 070607Z 04008KT 03/M03 A3034 RMK A01 T00281034  RH  064%=      5-min Rain = 0
KES1 070608Z 04007KT 03/M03 A3034 RMK A01 T00281034  RH  064%=      5-min Rain = 0
KES1 070609Z 03007KT 03/M03 A3034 RMK A01 T00281034  RH  064%=      5-min Rain = 0
KES1 070610Z 04007KT 03/M03 A3034 RMK A01 T00281033  RH  064%=      5-min Rain = 0
KES1 070611Z 04007KT 03/M03 A3034 RMK A01 T00281033  RH  064%=      5-min Rain = 0
KES1 070612Z 04006KT 03/M03 A3034 RMK A01 T00281032  RH  065%=      5-min Rain = 0
KES1 070613Z 04007KT 03/M03 A3034 RMK A01 T00281032  RH  065%=      5-min Rain = 0
KES1 070614Z 04007KT 03/M03 A3034 RMK A01 T00281031  RH  065%=      5-min Rain = 0
KES1 070615Z 03007KT 03/M03 A3034 RMK A01 T00281030  RH  066%=      5-min Rain = 0
KES1 070616Z 03006KT 03/M03 A3034 RMK A01 T00281030  RH  066%=      5-min Rain = 0
KES1 070617Z 03008KT 03/M03 A3034 RMK A01 T00281030  RH  066%=      5-min Rain = 0
KES1 070618Z 03007KT 03/M03 A3034 RMK A01 T00271031  RH  066%=      5-min Rain = 0
KES1 070619Z 03007KT 03/M03 A3034 RMK A01 T00271031  RH  065%=      5-min Rain = 0
KES1 070620Z 03007KT 03/M03 A3034 RMK A01 T00271031  RH  065%=      5-min Rain = 0
KES1 070621Z 03009KT 03/M03 A3034 RMK A01 T00271032  RH  065%=      5-min Rain = 0
KES1 070622Z 03007KT 03/M03 A3034 RMK A01 T00271032  RH  065%=      5-min Rain = 0
KES1 070623Z 04008KT 03/M03 A3034 RMK A01 T00271031  RH  065%=      5-min Rain = 0
KES1 070624Z 04006KT 03/M03 A3034 RMK A01 T00271032  RH  065%=      5-min Rain = 0
KES1 070625Z 03006KT 03/M03 A3034 RMK A01 T00271032  RH  065%=      5-min Rain = 0
KES1 070626Z 03007KT 03/M03 A3034 RMK A01 T00271031  RH  065%=      5-min Rain = 0
KES1 070627Z 03006KT 03/M03 A3034 RMK A01 T00271032  RH  065%=      5-min Rain = 0
KES1 070628Z 03009KT 03/M03 A3034 RMK A01 T00271032  RH  065%=      5-min Rain = 0
KES1 070629Z 03007KT 03/M03 A3033 RMK A01 T00271033  RH  064%=      5-min Rain = 0
KES1 070630Z 03008KT 03/M03 A3033 RMK A01 T00271033  RH  064%=      5-min Rain = 0
KES1 070631Z 03009KT 03/M03 A3033 RMK A01 T00271033  RH  064%=      5-min Rain = 0
KES1 070632Z 03009KT 03/M03 A3033 RMK A01 T00271033  RH  064%=      5-min Rain = 0
KES1 070633Z 03008KT 03/M03 A3033 RMK A01 T00271034  RH  064%=      5-min Rain = 0
KES1 070634Z 03007KT 03/M03 A3033 RMK A01 T00271034  RH  064%=      5-min Rain = 0
KES1 070635Z 03007KT 03/M03 A3033 RMK A01 T00271034  RH  064%=      5-min Rain = 0
KES1 070636Z 03006KT 03/M03 A3033 RMK A01 T00271033  RH  064%=      5-min Rain = 0
KES1 070637Z 03008KT 03/M03 A3033 RMK A01 T00271033  RH  064%=      5-min Rain = 0
KES1 070638Z 03008KT 03/M03 A3033 RMK A01 T00271033  RH  064%=      5-min Rain = 0
KES1 070639Z 02005KT 03/M03 A3033 RMK A01 T00281033  RH  065%=      5-min Rain = 0
KES1 070640Z 03006KT 03/M03 A3033 RMK A01 T00271033  RH  065%=      5-min Rain = 0
KES1 070641Z 03006KT 03/M03 A3033 RMK A01 T00271033  RH  065%=      5-min Rain = 0
KES1 070642Z 03006KT 03/M03 A3033 RMK A01 T00271033  RH  065%=      5-min Rain = 0
KES1 070643Z 03006KT 03/M03 A3034 RMK A01 T00271033  RH  065%=      5-min Rain = 0
KES1 070644Z 02005KT 03/M03 A3034 RMK A01 T00281033  RH  065%=      5-min Rain = 0
KES1 070645Z 02006KT 03/M03 A3034 RMK A01 T00271033  RH  064%=      5-min Rain = 0
KES1 070646Z 02005KT 03/M03 A3034 RMK A01 T00271034  RH  064%=      5-min Rain = 0
KES1 070647Z 01006KT 03/M03 A3034 RMK A01 T00271033  RH  064%=      5-min Rain = 0
KES1 070648Z 02007KT 03/M03 A3034 RMK A01 T00271033  RH  064%=      5-min Rain = 0
KES1 070649Z 02006KT 03/M03 A3035 RMK A01 T00281033  RH  064%=      5-min Rain = 0
KES1 070650Z 01006KT 03/M03 A3035 RMK A01 T00271033  RH  064%=      5-min Rain = 0
KES1 070651Z 02006KT 03/M03 A3035 RMK A01 T00271033  RH  064%=      5-min Rain = 0
KES1 070652Z 02007KT 03/M03 A3035 RMK A01 T00271033  RH  064%=      5-min Rain = 0
KES1 070653Z 02008KT 03/M03 A3035 RMK A01 T00271033  RH  064%=      5-min Rain = 0
KES1 070654Z 02008KT 03/M03 A3035 RMK A01 T00271033  RH  064%=      5-min Rain = 0
KES1 070655Z 02007KT 03/M03 A3034 RMK A01 T00271033  RH  065%=      5-min Rain = 0
KES1 070656Z 03007KT 03/M03 A3034 RMK A01 T00271033  RH  065%=      5-min Rain = 0
KES1 070657Z 05006KT 03/M03 A3034 RMK A01 T00271032  RH  065%=      5-min Rain = 0
KES1 070658Z 04007KT 03/M03 A3034 RMK A01 T00281031  RH  065%=      5-min Rain = 0
KES1 070659Z 04006KT 03/M03 A3034 RMK A01 T00271031  RH  066%=      5-min Rain = 0
KES1 070700Z 04006KT 03/M03 A3034 RMK A01 T00271030  RH  066%=      5-min Rain = 0
KES1 070701Z 02006KT 03/M03 A3034 RMK A01 T00271030  RH  066%=      5-min Rain = 0
KES1 070702Z 03007KT 03/M03 A3034 RMK A01 T00271030  RH  066%=      5-min Rain = 0
KES1 070703Z 02008KT 03/M03 A3033 RMK A01 T00271031  RH  066%=      5-min Rain = 0
KES1 070704Z 03006KT 03/M03 A3033 RMK A01 T00271030  RH  066%=      5-min Rain = 0
KES1 070705Z 03008KT 03/M03 A3033 RMK A01 T00271030  RH  066%=      5-min Rain = 0
KES1 070706Z 03010KT 03/M03 A3033 RMK A01 T00271030  RH  066%=      5-min Rain = 0
KES1 070707Z 03009KT 03/M03 A3033 RMK A01 T00271030  RH  066%=      5-min Rain = 0
KES1 070708Z 04007KT 03/M03 A3033 RMK A01 T00261030  RH  066%=      5-min Rain = 0
KES1 070709Z 04006KT 03/M03 A3033 RMK A01 T00261030  RH  066%=      5-min Rain = 0
KES1 070710Z 04008KT 03/M03 A3033 RMK A01 T00261029  RH  067%=      5-min Rain = 0
KES1 070711Z 03009KT 03/M03 A3033 RMK A01 T00261029  RH  067%=      5-min Rain = 0
KES1 070712Z 03009KT 03/M03 A3033 RMK A01 T00261028  RH  067%=      5-min Rain = 0
KES1 070713Z 04009KT 03/M03 A3033 RMK A01 T00261028  RH  068%=      5-min Rain = 0
KES1 070714Z 04009KT 03/M03 A3034 RMK A01 T00261028  RH  068%=      5-min Rain = 0
KES1 070715Z 03009KT 03/M03 A3034 RMK A01 T00261027  RH  068%=      5-min Rain = 0
KES1 070716Z 04008KT 03/M03 A3034 RMK A01 T00261027  RH  068%=      5-min Rain = 0
KES1 070717Z 04008KT 03/M03 A3033 RMK A01 T00251027  RH  069%=      5-min Rain = 0
KES1 070718Z 04006KT 03/M03 A3033 RMK A01 T00251026  RH  069%=      5-min Rain = 0
KES1 070719Z 04008KT 03/M03 A3033 RMK A01 T00251026  RH  069%=      5-min Rain = 0
KES1 070720Z 04009KT 03/M03 A3033 RMK A01 T00251026  RH  069%=      5-min Rain = 0
KES1 070721Z 04008KT 03/M03 A3034 RMK A01 T00251026  RH  069%=      5-min Rain = 0
KES1 070722Z 03006KT 03/M03 A3034 RMK A01 T00251026  RH  069%=      5-min Rain = 0
KES1 070723Z 03008KT 03/M03 A3034 RMK A01 T00251026  RH  069%=      5-min Rain = 0
KES1 070724Z 04007KT 03/M03 A3034 RMK A01 T00251026  RH  069%=      5-min Rain = 0
KES1 070725Z 04008KT 03/M03 A3034 RMK A01 T00251026  RH  069%=      5-min Rain = 0
KES1 070726Z 03007KT 03/M03 A3034 RMK A01 T00251025  RH  069%=      5-min Rain = 0
KES1 070727Z 03008KT 03/M03 A3034 RMK A01 T00251025  RH  070%=      5-min Rain = 0
KES1 070728Z 04007KT 03/M03 A3034 RMK A01 T00251025  RH  070%=      5-min Rain = 0
KES1 070729Z 04007KT 02/M03 A3034 RMK A01 T00241025  RH  070%=      5-min Rain = 0
KES1 070730Z 03008KT 03/M02 A3034 RMK A01 T00251024  RH  070%=      5-min Rain = 0
KES1 070731Z 03008KT 02/M02 A3034 RMK A01 T00241024  RH  070%=      5-min Rain = 0
KES1 070732Z 03008KT 02/M02 A3034 RMK A01 T00241024  RH  071%=      5-min Rain = 0
KES1 070733Z 03008KT 02/M02 A3034 RMK A01 T00241024  RH  071%=      5-min Rain = 0
KES1 070734Z 03007KT 02/M02 A3034 RMK A01 T00241024  RH  071%=      5-min Rain = 0
KES1 070735Z 03008KT 02/M02 A3034 RMK A01 T00241023  RH  071%=      5-min Rain = 0
KES1 070736Z 03008KT 02/M02 A3034 RMK A01 T00231023  RH  071%=      5-min Rain = 0
KES1 070737Z 03007KT 02/M02 A3034 RMK A01 T00241023  RH  071%=      5-min Rain = 0
KES1 070738Z 04006KT 02/M02 A3034 RMK A01 T00241022  RH  072%=      5-min Rain = 0
KES1 070739Z 05008KT 02/M02 A3034 RMK A01 T00241022  RH  072%=      5-min Rain = 0
KES1 070740Z 05008KT 02/M02 A3034 RMK A01 T00241022  RH  072%=      5-min Rain = 0
KES1 070741Z 04008KT 02/M02 A3034 RMK A01 T00231022  RH  072%=      5-min Rain = 0
KES1 070742Z 04008KT 02/M02 A3034 RMK A01 T00231023  RH  072%=      5-min Rain = 0
KES1 070743Z 04006KT 02/M02 A3034 RMK A01 T00231023  RH  071%=      5-min Rain = 0
KES1 070744Z 04006KT 02/M02 A3034 RMK A01 T00231023  RH  072%=      5-min Rain = 0
KES1 070745Z 03006KT 02/M02 A3034 RMK A01 T00231023  RH  071%=      5-min Rain = 0
KES1 070746Z 02007KT 02/M02 A3034 RMK A01 T00231023  RH  072%=      5-min Rain = 0
KES1 070747Z 03007KT 02/M02 A3034 RMK A01 T00231023  RH  072%=      5-min Rain = 0
KES1 070748Z 04007KT 02/M02 A3034 RMK A01 T00231023  RH  072%=      5-min Rain = 0
KES1 070749Z 03007KT 02/M02 A3034 RMK A01 T00231023  RH  072%=      5-min Rain = 0
KES1 070750Z 02006KT 02/M02 A3034 RMK A01 T00231023  RH  071%=      5-min Rain = 0
KES1 070751Z 02007KT 02/M02 A3034 RMK A01 T00231023  RH  071%=      5-min Rain = 0
KES1 070752Z 02008KT 02/M02 A3034 RMK A01 T00231023  RH  071%=      5-min Rain = 0
KES1 070753Z 02008KT 02/M02 A3034 RMK A01 T00231023  RH  071%=      5-min Rain = 0
KES1 070754Z 01007KT 02/M02 A3034 RMK A01 T00231024  RH  071%=      5-min Rain = 0
KES1 070755Z 02007KT 02/M02 A3034 RMK A01 T00231024  RH  071%=      5-min Rain = 0
KES1 070756Z 02006KT 02/M02 A3034 RMK A01 T00231024  RH  071%=      5-min Rain = 0
KES1 070757Z 01008KT 02/M02 A3034 RMK A01 T00231024  RH  071%=      5-min Rain = 0
KES1 070758Z 02007KT 02/M02 A3034 RMK A01 T00231024  RH  071%=      5-min Rain = 0
KES1 070759Z 04006KT 02/M02 A3034 RMK A01 T00231024  RH  071%=      5-min Rain = 0
KES1 070800Z 03006KT 02/M02 A3034 RMK A01 T00231023  RH  071%=      5-min Rain = 0
KES1 070801Z 04006KT 02/M02 A3034 RMK A01 T00231023  RH  072%=      5-min Rain = 0
KES1 070802Z 04006KT 02/M02 A3034 RMK A01 T00231023  RH  071%=      5-min Rain = 0
KES1 070803Z 05007KT 02/M02 A3034 RMK A01 T00231023  RH  072%=      5-min Rain = 0
KES1 070804Z 04006KT 02/M02 A3035 RMK A01 T00231022  RH  072%=      5-min Rain = 0
KES1 070805Z 05007KT 02/M02 A3035 RMK A01 T00231022  RH  072%=      5-min Rain = 0
KES1 070806Z 04006KT 02/M02 A3035 RMK A01 T00231023  RH  072%=      5-min Rain = 0
KES1 070807Z 05005KT 02/M02 A3035 RMK A01 T00231022  RH  072%=      5-min Rain = 0
KES1 070808Z 05006KT 02/M02 A3035 RMK A01 T00231022  RH  072%=      5-min Rain = 0
KES1 070809Z 05005KT 02/M02 A3035 RMK A01 T00231023  RH  072%=      5-min Rain = 0
KES1 070810Z 04005KT 02/M02 A3035 RMK A01 T00231022  RH  072%=      5-min Rain = 0
KES1 070811Z 05006KT 02/M02 A3035 RMK A01 T00231022  RH  072%=      5-min Rain = 0
KES1 070812Z 04005KT 02/M02 A3035 RMK A01 T00231022  RH  072%=      5-min Rain = 0
KES1 070813Z 04006KT 02/M02 A3035 RMK A01 T00231022  RH  072%=      5-min Rain = 0
KES1 070814Z 05006KT 02/M02 A3035 RMK A01 T00231022  RH  072%=      5-min Rain = 0
KES1 070815Z 03005KT 02/M02 A3035 RMK A01 T00231022  RH  072%=      5-min Rain = 0
KES1 070816Z 03006KT 02/M02 A3035 RMK A01 T00231021  RH  072%=      5-min Rain = 0
KES1 070817Z 03006KT 02/M02 A3035 RMK A01 T00231022  RH  072%=      5-min Rain = 0
KES1 070818Z 03006KT 02/M02 A3035 RMK A01 T00231022  RH  072%=      5-min Rain = 0
KES1 070819Z 04005KT 02/M02 A3035 RMK A01 T00231023  RH  072%=      5-min Rain = 0
KES1 070820Z 03005KT 02/M02 A3035 RMK A01 T00231022  RH  072%=      5-min Rain = 0
KES1 070821Z 02005KT 02/M02 A3035 RMK A01 T00231022  RH  072%=      5-min Rain = 0
KES1 070822Z 02006KT 02/M02 A3035 RMK A01 T00231022  RH  072%=      5-min Rain = 0
KES1 070823Z 02008KT 02/M02 A3035 RMK A01 T00231021  RH  073%=      5-min Rain = 0
KES1 070824Z 02007KT 02/M02 A3035 RMK A01 T00231021  RH  073%=      5-min Rain = 0
KES1 070825Z 04008KT 02/M02 A3035 RMK A01 T00221021  RH  073%=      5-min Rain = 0
KES1 070826Z 04006KT 02/M02 A3035 RMK A01 T00221021  RH  073%=      5-min Rain = 0
KES1 070827Z 05005KT 02/M02 A3035 RMK A01 T00221021  RH  074%=      5-min Rain = 0
KES1 070828Z 05005KT 02/M02 A3035 RMK A01 T00221020  RH  073%=      5-min Rain = 0
KES1 070829Z 03005KT 02/M02 A3035 RMK A01 T00221021  RH  073%=      5-min Rain = 0
KES1 070830Z 03006KT 02/M02 A3035 RMK A01 T00221021  RH  073%=      5-min Rain = 0
KES1 070831Z 03006KT 02/M02 A3035 RMK A01 T00221021  RH  073%=      5-min Rain = 0
KES1 070832Z 02006KT 02/M02 A3035 RMK A01 T00221021  RH  073%=      5-min Rain = 0
KES1 070833Z 02006KT 02/M02 A3035 RMK A01 T00221021  RH  073%=      5-min Rain = 0
KES1 070834Z 02006KT 02/M02 A3035 RMK A01 T00221021  RH  073%=      5-min Rain = 0
KES1 070835Z 04006KT 02/M02 A3035 RMK A01 T00221021  RH  073%=      5-min Rain = 0
KES1 070836Z 04005KT 02/M02 A3035 RMK A01 T00221021  RH  073%=      5-min Rain = 0
KES1 070837Z 04005KT 02/M02 A3035 RMK A01 T00221021  RH  073%=      5-min Rain = 0
KES1 070838Z 04003KT 02/M02 A3035 RMK A01 T00221021  RH  073%=      5-min Rain = 0
KES1 070839Z 05004KT 02/M02 A3035 RMK A01 T00221021  RH  073%=      5-min Rain = 0
KES1 070840Z 03005KT 02/M02 A3035 RMK A01 T00221021  RH  074%=      5-min Rain = 0
KES1 070841Z 03003KT 02/M02 A3035 RMK A01 T00221021  RH  073%=      5-min Rain = 0
KES1 070842Z 03003KT 02/M02 A3035 RMK A01 T00221021  RH  073%=      5-min Rain = 0
KES1 070843Z 04003KT 02/M02 A3036 RMK A01 T00221021  RH  073%=      5-min Rain = 0
KES1 070844Z 04002KT 02/M02 A3036 RMK A01 T00221021  RH  073%=      5-min Rain = 0
KES1 070845Z 05002KT 02/M02 A3036 RMK A01 T00221021  RH  073%=      5-min Rain = 0
KES1 070846Z 03002KT 02/M02 A3036 RMK A01 T00221021  RH  073%=      5-min Rain = 0
KES1 070847Z 04004KT 02/M02 A3036 RMK A01 T00221021  RH  073%=      5-min Rain = 0
KES1 070848Z 03004KT 02/M02 A3036 RMK A01 T00221021  RH  073%=      5-min Rain = 0
KES1 070849Z 03004KT 02/M02 A3036 RMK A01 T00221021  RH  073%=      5-min Rain = 0
KES1 070850Z 03006KT 02/M02 A3036 RMK A01 T00221022  RH  073%=      5-min Rain = 0
KES1 070851Z 02006KT 02/M02 A3036 RMK A01 T00221022  RH  073%=      5-min Rain = 0
KES1 070852Z 02006KT 02/M02 A3036 RMK A01 T00221022  RH  073%=      5-min Rain = 0
KES1 070853Z 03008KT 02/M02 A3036 RMK A01 T00221022  RH  073%=      5-min Rain = 0
KES1 070854Z 04006KT 02/M02 A3036 RMK A01 T00221022  RH  073%=      5-min Rain = 0
KES1 070855Z 03005KT 02/M02 A3035 RMK A01 T00221022  RH  073%=      5-min Rain = 0
KES1 070856Z 04005KT 02/M02 A3035 RMK A01 T00221021  RH  073%=      5-min Rain = 0
KES1 070857Z 03004KT 02/M02 A3035 RMK A01 T00221021  RH  073%=      5-min Rain = 0
KES1 070858Z 02005KT 02/M02 A3035 RMK A01 T00221021  RH  073%=      5-min Rain = 0
KES1 070859Z 02006KT 02/M02 A3035 RMK A01 T00221021  RH  073%=      5-min Rain = 0
KES1 070900Z 02008KT 02/M02 A3035 RMK A01 T00221021  RH  074%=      5-min Rain = 0
KES1 070901Z 02007KT 02/M02 A3035 RMK A01 T00221021  RH  074%=      5-min Rain = 0
KES1 070902Z 02007KT 02/M02 A3035 RMK A01 T00221020  RH  074%=      5-min Rain = 0
KES1 070903Z 02007KT 02/M02 A3035 RMK A01 T00221020  RH  074%=      5-min Rain = 0
KES1 070904Z 02007KT 02/M02 A3035 RMK A01 T00221020  RH  074%=      5-min Rain = 0
KES1 070905Z 02008KT 02/M02 A3035 RMK A01 T00221020  RH  074%=      5-min Rain = 0
KES1 070906Z 03006KT 02/M02 A3035 RMK A01 T00221019  RH  074%=      5-min Rain = 0
KES1 070907Z 02004KT 02/M02 A3035 RMK A01 T00221019  RH  074%=      5-min Rain = 0
KES1 070908Z 02005KT 02/M02 A3035 RMK A01 T00221019  RH  074%=      5-min Rain = 0
KES1 070909Z 02005KT 02/M02 A3035 RMK A01 T00221019  RH  074%=      5-min Rain = 0
KES1 070910Z 02006KT 02/M02 A3035 RMK A01 T00221019  RH  074%=      5-min Rain = 0
KES1 070911Z 03007KT 02/M02 A3035 RMK A01 T00221019  RH  074%=      5-min Rain = 0
KES1 070912Z 03007KT 02/M02 A3035 RMK A01 T00211019  RH  075%=      5-min Rain = 0
KES1 070913Z 03006KT 02/M02 A3034 RMK A01 T00211019  RH  075%=      5-min Rain = 0
KES1 070914Z 02006KT 02/M02 A3034 RMK A01 T00211019  RH  075%=      5-min Rain = 0
KES1 070915Z 03007KT 02/M02 A3034 RMK A01 T00211018  RH  075%=      5-min Rain = 0
KES1 070916Z 03006KT 02/M02 A3034 RMK A01 T00211018  RH  075%=      5-min Rain = 0
KES1 070917Z 02005KT 02/M02 A3035 RMK A01 T00211018  RH  075%=      5-min Rain = 0
KES1 070918Z 02005KT 02/M02 A3035 RMK A01 T00211018  RH  075%=      5-min Rain = 0
KES1 070919Z 01004KT 02/M02 A3035 RMK A01 T00201019  RH  075%=      5-min Rain = 0
KES1 070920Z 01005KT 02/M02 A3035 RMK A01 T00201019  RH  075%=      5-min Rain = 0
KES1 070921Z 01007KT 02/M02 A3035 RMK A01 T00201019  RH  075%=      5-min Rain = 0
KES1 070922Z 01006KT 02/M02 A3035 RMK A01 T00201019  RH  075%=      5-min Rain = 0
KES1 070923Z 01007KT 02/M02 A3035 RMK A01 T00201019  RH  075%=      5-min Rain = 0
KES1 070924Z 01007KT 02/M02 A3035 RMK A01 T00211019  RH  075%=      5-min Rain = 0
KES1 070925Z 01006KT 02/M02 A3035 RMK A01 T00211018  RH  075%=      5-min Rain = 0
KES1 070926Z 01006KT 02/M02 A3035 RMK A01 T00201018  RH  076%=      5-min Rain = 0
KES1 070927Z 01006KT 02/M02 A3035 RMK A01 T00211018  RH  076%=      5-min Rain = 0
KES1 070928Z 01006KT 02/M02 A3035 RMK A01 T00201018  RH  076%=      5-min Rain = 0
KES1 070929Z 01006KT 02/M02 A3035 RMK A01 T00201018  RH  076%=      5-min Rain = 0
KES1 070930Z 01004KT 02/M02 A3035 RMK A01 T00201018  RH  075%=      5-min Rain = 0
KES1 070931Z 01004KT 02/M02 A3035 RMK A01 T00201018  RH  076%=      5-min Rain = 0
KES1 070932Z 00004KT 02/M02 A3035 RMK A01 T00211018  RH  076%=      5-min Rain = 0
KES1 070933Z 36005KT 02/M02 A3035 RMK A01 T00201018  RH  076%=      5-min Rain = 0
KES1 070934Z 00006KT 02/M02 A3035 RMK A01 T00201018  RH  076%=      5-min Rain = 0
KES1 070935Z 00005KT 02/M02 A3035 RMK A01 T00201018  RH  075%=      5-min Rain = 0
KES1 070936Z 01005KT 02/M02 A3035 RMK A01 T00201018  RH  076%=      5-min Rain = 0
KES1 070937Z 00005KT 02/M02 A3035 RMK A01 T00201018  RH  076%=      5-min Rain = 0
KES1 070938Z 00004KT 02/M02 A3035 RMK A01 T00201018  RH  076%=      5-min Rain = 0
KES1 070939Z 01006KT 02/M02 A3035 RMK A01 T00201018  RH  076%=      5-min Rain = 0
KES1 070940Z 36006KT 02/M02 A3035 RMK A01 T00211018  RH  076%=      5-min Rain = 0
KES1 070941Z 00006KT 02/M02 A3035 RMK A01 T00201018  RH  076%=      5-min Rain = 0
KES1 070942Z 00005KT 02/M02 A3035 RMK A01 T00211017  RH  076%=      5-min Rain = 0
KES1 070943Z 36005KT 02/M02 A3035 RMK A01 T00201017  RH  076%=      5-min Rain = 0
KES1 070944Z 36006KT 02/M02 A3035 RMK A01 T00201018  RH  076%=      5-min Rain = 0
KES1 070945Z 01006KT 02/M02 A3035 RMK A01 T00211017  RH  076%=      5-min Rain = 0
KES1 070946Z 01007KT 02/M02 A3035 RMK A01 T00201017  RH  076%=      5-min Rain = 0
KES1 070947Z 02006KT 02/M02 A3034 RMK A01 T00201018  RH  076%=      5-min Rain = 0
KES1 070948Z 02005KT 02/M02 A3034 RMK A01 T00201017  RH  076%=      5-min Rain = 0
KES1 070949Z 02006KT 02/M02 A3034 RMK A01 T00201017  RH  077%=      5-min Rain = 0
KES1 070950Z 02005KT 02/M02 A3035 RMK A01 T00201017  RH  077%=      5-min Rain = 0
KES1 070951Z 02005KT 02/M02 A3035 RMK A01 T00201017  RH  077%=      5-min Rain = 0
KES1 070952Z 02004KT 02/M02 A3035 RMK A01 T00201017  RH  077%=      5-min Rain = 0
KES1 070953Z 02005KT 02/M02 A3035 RMK A01 T00191017  RH  077%=      5-min Rain = 0
KES1 070954Z 03004KT 02/M02 A3035 RMK A01 T00191017  RH  077%=      5-min Rain = 0
KES1 070955Z 03004KT 02/M02 A3035 RMK A01 T00201017  RH  077%=      5-min Rain = 0
KES1 070956Z 03005KT 02/M02 A3035 RMK A01 T00191017  RH  077%=      5-min Rain = 0
KES1 070957Z 03006KT 02/M02 A3034 RMK A01 T00201017  RH  077%=      5-min Rain = 0
KES1 070958Z 03005KT 02/M02 A3034 RMK A01 T00191017  RH  077%=      5-min Rain = 0
KES1 070959Z 03004KT 02/M02 A3034 RMK A01 T00191017  RH  077%=      5-min Rain = 0
KES1 071000Z 02005KT 02/M02 A3034 RMK A01 T00191017  RH  077%=      5-min Rain = 0
KES1 071001Z 03004KT 02/M02 A3034 RMK A01 T00191017  RH  077%=      5-min Rain = 0
KES1 071002Z 03004KT 02/M02 A3034 RMK A01 T00191016  RH  077%=      5-min Rain = 0
KES1 071003Z 03005KT 02/M02 A3034 RMK A01 T00191017  RH  077%=      5-min Rain = 0
KES1 071004Z 03004KT 02/M02 A3034 RMK A01 T00191017  RH  077%=      5-min Rain = 0
KES1 071005Z 03006KT 02/M02 A3034 RMK A01 T00191017  RH  077%=      5-min Rain = 0
KES1 071006Z 02006KT 02/M02 A3034 RMK A01 T00191017  RH  077%=      5-min Rain = 0
KES1 071007Z 01006KT 02/M02 A3034 RMK A01 T00191017  RH  077%=      5-min Rain = 0
KES1 071008Z 01006KT 02/M02 A3034 RMK A01 T00191017  RH  077%=      5-min Rain = 0
KES1 071009Z 01005KT 02/M02 A3034 RMK A01 T00191017  RH  077%=      5-min Rain = 0
KES1 071010Z 01004KT 02/M02 A3034 RMK A01 T00191018  RH  077%=      5-min Rain = 0
KES1 071011Z 01004KT 02/M02 A3035 RMK A01 T00191017  RH  077%=      5-min Rain = 0
KES1 071012Z 01004KT 02/M02 A3035 RMK A01 T00201017  RH  077%=      5-min Rain = 0
KES1 071013Z 01005KT 02/M02 A3035 RMK A01 T00191017  RH  077%=      5-min Rain = 0
KES1 071014Z 02004KT 02/M02 A3035 RMK A01 T00201017  RH  077%=      5-min Rain = 0
KES1 071015Z 02005KT 02/M02 A3035 RMK A01 T00191017  RH  077%=      5-min Rain = 0
KES1 071016Z 03006KT 02/M02 A3034 RMK A01 T00191017  RH  077%=      5-min Rain = 0
KES1 071017Z 03006KT 02/M02 A3034 RMK A01 T00191017  RH  077%=      5-min Rain = 0
KES1 071018Z 03006KT 02/M02 A3034 RMK A01 T00191017  RH  077%=      5-min Rain = 0
KES1 071019Z 03006KT 02/M02 A3034 RMK A01 T00191017  RH  077%=      5-min Rain = 0
KES1 071020Z 03005KT 02/M02 A3034 RMK A01 T00191016  RH  077%=      5-min Rain = 0
KES1 071021Z 02005KT 02/M02 A3034 RMK A01 T00191017  RH  077%=      5-min Rain = 0
KES1 071022Z 03003KT 02/M02 A3034 RMK A01 T00191017  RH  077%=      5-min Rain = 0
KES1 071023Z 03003KT 02/M02 A3034 RMK A01 T00191016  RH  077%=      5-min Rain = 0
KES1 071024Z 03005KT 02/M02 A3035 RMK A01 T00191016  RH  077%=      5-min Rain = 0
KES1 071025Z 03005KT 02/M02 A3035 RMK A01 T00191016  RH  078%=      5-min Rain = 0
KES1 071026Z 03006KT 02/M02 A3035 RMK A01 T00191016  RH  077%=      5-min Rain = 0
KES1 071027Z 03006KT 02/M02 A3035 RMK A01 T00191016  RH  077%=      5-min Rain = 0
KES1 071028Z 04005KT 02/M02 A3034 RMK A01 T00191016  RH  077%=      5-min Rain = 0
KES1 071029Z 03005KT 02/M02 A3035 RMK A01 T00191016  RH  078%=      5-min Rain = 0
KES1 071030Z 02005KT 02/M02 A3035 RMK A01 T00191016  RH  078%=      5-min Rain = 0
KES1 071031Z 03005KT 02/M02 A3035 RMK A01 T00191016  RH  078%=      5-min Rain = 0
KES1 071032Z 03006KT 02/M02 A3035 RMK A01 T00191016  RH  078%=      5-min Rain = 0
KES1 071033Z 03006KT 02/M02 A3034 RMK A01 T00181016  RH  078%=      5-min Rain = 0
KES1 071034Z 03005KT 02/M02 A3035 RMK A01 T00191016  RH  078%=      5-min Rain = 0
KES1 071035Z 04005KT 02/M02 A3035 RMK A01 T00191016  RH  078%=      5-min Rain = 0
KES1 071036Z 03004KT 02/M02 A3035 RMK A01 T00191016  RH  078%=      5-min Rain = 0
KES1 071037Z 04004KT 02/M02 A3035 RMK A01 T00191016  RH  078%=      5-min Rain = 0
KES1 071038Z 04005KT 02/M02 A3035 RMK A01 T00191016  RH  078%=      5-min Rain = 0
KES1 071039Z 03006KT 02/M02 A3034 RMK A01 T00181016  RH  078%=      5-min Rain = 0
KES1 071040Z 04005KT 02/M02 A3034 RMK A01 T00191016  RH  078%=      5-min Rain = 0
KES1 071041Z 04004KT 02/M02 A3034 RMK A01 T00191016  RH  078%=      5-min Rain = 0
KES1 071042Z 04004KT 02/M02 A3035 RMK A01 T00191016  RH  078%=      5-min Rain = 0
KES1 071043Z 03004KT 02/M02 A3035 RMK A01 T00191016  RH  078%=      5-min Rain = 0
KES1 071044Z 03005KT 02/M02 A3035 RMK A01 T00191016  RH  078%=      5-min Rain = 0
KES1 071045Z 03005KT 02/M02 A3035 RMK A01 T00191016  RH  078%=      5-min Rain = 0
KES1 071046Z 03004KT 02/M02 A3035 RMK A01 T00191016  RH  078%=      5-min Rain = 0
KES1 071047Z 03004KT 02/M02 A3035 RMK A01 T00191016  RH  078%=      5-min Rain = 0
KES1 071048Z 02003KT 02/M02 A3035 RMK A01 T00191016  RH  078%=      5-min Rain = 0
KES1 071049Z 03003KT 02/M02 A3035 RMK A01 T00181016  RH  078%=      5-min Rain = 0
KES1 071050Z 02003KT 02/M02 A3035 RMK A01 T00191016  RH  078%=      5-min Rain = 0
KES1 071051Z 03003KT 02/M02 A3035 RMK A01 T00191016  RH  078%=      5-min Rain = 0
KES1 071052Z 03003KT 02/M02 A3035 RMK A01 T00181016  RH  078%=      5-min Rain = 0
KES1 071053Z 03004KT 02/M02 A3035 RMK A01 T00191016  RH  078%=      5-min Rain = 0
KES1 071054Z 03004KT 02/M02 A3035 RMK A01 T00191016  RH  078%=      5-min Rain = 0
KES1 071055Z 05004KT 02/M02 A3035 RMK A01 T00191016  RH  078%=      5-min Rain = 0
KES1 071056Z 04003KT 02/M02 A3035 RMK A01 T00181016  RH  078%=      5-min Rain = 0
KES1 071057Z 05005KT 02/M02 A3035 RMK A01 T00181016  RH  078%=      5-min Rain = 0
KES1 071058Z 04005KT 02/M02 A3034 RMK A01 T00191016  RH  078%=      5-min Rain = 0
KES1 071059Z 05007KT 02/M02 A3034 RMK A01 T00191016  RH  078%=      5-min Rain = 0
KES1 071100Z 05007KT 02/M02 A3034 RMK A01 T00191016  RH  078%=      5-min Rain = 0
KES1 071101Z 05008KT 02/M02 A3033 RMK A01 T00181016  RH  078%=      5-min Rain = 0
KES1 071102Z 05008KT 02/M02 A3033 RMK A01 T00181016  RH  078%=      5-min Rain = 0
KES1 071103Z 05008KT 02/M02 A3033 RMK A01 T00181016  RH  078%=      5-min Rain = 0
KES1 071104Z 05008KT 02/M02 A3033 RMK A01 T00181016  RH  078%=      5-min Rain = 0
KES1 071105Z 05008KT 02/M02 A3033 RMK A01 T00171016  RH  078%=      5-min Rain = 0
KES1 071106Z 05007KT 02/M02 A3033 RMK A01 T00171016  RH  079%=      5-min Rain = 0
KES1 071107Z 05008KT 02/M02 A3033 RMK A01 T00171016  RH  079%=      5-min Rain = 0
KES1 071108Z 05009KT 02/M02 A3032 RMK A01 T00171015  RH  079%=      5-min Rain = 0
KES1 071109Z 06010KT 02/M02 A3032 RMK A01 T00171016  RH  079%=      5-min Rain = 0
KES1 071110Z 06009KT 02/M02 A3032 RMK A01 T00161016  RH  079%=      5-min Rain = 0
KES1 071111Z 06008KT 02/M02 A3032 RMK A01 T00161016  RH  079%=      5-min Rain = 0
KES1 071112Z 06008KT 02/M02 A3032 RMK A01 T00161015  RH  079%=      5-min Rain = 0
KES1 071113Z 05010KT 02/M02 A3032 RMK A01 T00161015  RH  079%=      5-min Rain = 0
KES1 071114Z 06009KT 02/M02 A3032 RMK A01 T00161015  RH  079%=      5-min Rain = 0
KES1 071115Z 05009KT 02/M02 A3032 RMK A01 T00161016  RH  080%=      5-min Rain = 0
KES1 071116Z 06007KT 02/M02 A3032 RMK A01 T00161016  RH  080%=      5-min Rain = 0
KES1 071117Z 06009KT 02/M02 A3032 RMK A01 T00161016  RH  080%=      5-min Rain = 0
KES1 071118Z 06010KT 02/M02 A3032 RMK A01 T00161015  RH  080%=      5-min Rain = 0
KES1 071119Z 06009KT 02/M02 A3032 RMK A01 T00161016  RH  080%=      5-min Rain = 0
KES1 071120Z 06009KT 02/M02 A3032 RMK A01 T00161016  RH  080%=      5-min Rain = 0
KES1 071121Z 06009KT 02/M02 A3032 RMK A01 T00161016  RH  080%=      5-min Rain = 0
KES1 071122Z 07007KT 02/M02 A3032 RMK A01 T00161016  RH  080%=      5-min Rain = 0
KES1 071123Z 07006KT 02/M02 A3033 RMK A01 T00161015  RH  080%=      5-min Rain = 0
KES1 071124Z 07006KT 02/M02 A3034 RMK A01 T00161015  RH  080%=      5-min Rain = 0
KES1 071125Z 07006KT 02/M02 A3034 RMK A01 T00161015  RH  080%=      5-min Rain = 0
KES1 071126Z 06005KT 02/M02 A3034 RMK A01 T00161016  RH  080%=      5-min Rain = 0
KES1 071127Z 05006KT 02/M02 A3034 RMK A01 T00161015  RH  080%=      5-min Rain = 0
KES1 071128Z 05007KT 02/M02 A3034 RMK A01 T00161015  RH  080%=      5-min Rain = 0
KES1 071129Z 06005KT 02/M02 A3035 RMK A01 T00161015  RH  080%=      5-min Rain = 0
KES1 071130Z 05005KT 02/M02 A3035 RMK A01 T00161015  RH  080%=      5-min Rain = 0
KES1 071131Z 05006KT 02/M02 A3035 RMK A01 T00161015  RH  080%=      5-min Rain = 0
KES1 071132Z 06005KT 02/M02 A3035 RMK A01 T00161015  RH  080%=      5-min Rain = 0
KES1 071133Z 05004KT 02/M02 A3035 RMK A01 T00161015  RH  080%=      5-min Rain = 0
KES1 071134Z 06004KT 02/M02 A3035 RMK A01 T00161015  RH  080%=      5-min Rain = 0
KES1 071135Z 06005KT 02/M02 A3035 RMK A01 T00161015  RH  080%=      5-min Rain = 0
KES1 071136Z 05005KT 02/M02 A3035 RMK A01 T00161015  RH  080%=      5-min Rain = 0
KES1 071137Z 05004KT 02/M02 A3035 RMK A01 T00161015  RH  080%=      5-min Rain = 0
KES1 071138Z 05004KT 02/M02 A3035 RMK A01 T00161015  RH  080%=      5-min Rain = 0
KES1 071139Z 05005KT 02/M02 A3035 RMK A01 T00161015  RH  080%=      5-min Rain = 0
KES1 071140Z 06007KT 02/M02 A3035 RMK A01 T00161015  RH  080%=      5-min Rain = 0
KES1 071141Z 06006KT 02/M02 A3035 RMK A01 T00161015  RH  080%=      5-min Rain = 0
KES1 071142Z 05007KT 02/M02 A3035 RMK A01 T00161015  RH  080%=      5-min Rain = 0
KES1 071143Z 05007KT 02/M02 A3035 RMK A01 T00151015  RH  080%=      5-min Rain = 0
KES1 071144Z 05009KT 02/M02 A3035 RMK A01 T00151015  RH  080%=      5-min Rain = 0
KES1 071145Z 05008KT 02/M02 A3034 RMK A01 T00151016  RH  080%=      5-min Rain = 0
KES1 071146Z 05007KT 02/M02 A3034 RMK A01 T00151016  RH  080%=      5-min Rain = 0
KES1 071147Z 05007KT 02/M02 A3034 RMK A01 T00151015  RH  080%=      5-min Rain = 0
KES1 071148Z 05006KT 02/M02 A3035 RMK A01 T00151016  RH  080%=      5-min Rain = 0
KES1 071149Z 05007KT 02/M02 A3034 RMK A01 T00151016  RH  080%=      5-min Rain = 0
KES1 071150Z 05009KT 02/M02 A3034 RMK A01 T00151016  RH  080%=      5-min Rain = 0
KES1 071151Z 05008KT 02/M02 A3034 RMK A01 T00151016  RH  080%=      5-min Rain = 0
KES1 071152Z 05007KT 02/M02 A3034 RMK A01 T00151016  RH  080%=      5-min Rain = 0
KES1 071153Z 06007KT 02/M02 A3034 RMK A01 T00151016  RH  080%=      5-min Rain = 0
KES1 071154Z 05006KT 02/M02 A3034 RMK A01 T00151016  RH  080%=      5-min Rain = 0
KES1 071155Z 05008KT 02/M02 A3034 RMK A01 T00151016  RH  079%=      5-min Rain = 0
KES1 071156Z 05007KT 02/M02 A3034 RMK A01 T00151017  RH  079%=      5-min Rain = 0
KES1 071157Z 06008KT 02/M02 A3034 RMK A01 T00151017  RH  079%=      5-min Rain = 0
KES1 071158Z 05009KT 02/M02 A3034 RMK A01 T00151017  RH  079%=      5-min Rain = 0
KES1 071159Z 05009KT 02/M02 A3034 RMK A01 T00151018  RH  078%=      5-min Rain = 0
KES1 071200Z 05006KT 02/M02 A3034 RMK A01 T00161018  RH  079%=      5-min Rain = 0
KES1 071201Z 05006KT 02/M02 A3034 RMK A01 T00151017  RH  079%=      5-min Rain = 0
KES1 071202Z 04007KT 02/M02 A3035 RMK A01 T00151017  RH  079%=      5-min Rain = 0
KES1 071203Z 05009KT 02/M02 A3035 RMK A01 T00161017  RH  079%=      5-min Rain = 0
KES1 071204Z 04009KT 02/M02 A3035 RMK A01 T00151019  RH  078%=      5-min Rain = 0
KES1 071205Z 04009KT 02/M02 A3035 RMK A01 T00151019  RH  078%=      5-min Rain = 0
KES1 071206Z 04009KT 02/M02 A3035 RMK A01 T00151020  RH  078%=      5-min Rain = 0
KES1 071207Z 05007KT 02/M02 A3034 RMK A01 T00151019  RH  078%=      5-min Rain = 0
KES1 071208Z 04007KT 02/M02 A3034 RMK A01 T00151019  RH  078%=      5-min Rain = 0
KES1 071209Z 05007KT 02/M02 A3034 RMK A01 T00151019  RH  078%=      5-min Rain = 0
KES1 071210Z 05006KT 02/M02 A3034 RMK A01 T00151019  RH  078%=      5-min Rain = 0
KES1 071211Z 05007KT 02/M02 A3034 RMK A01 T00151019  RH  078%=      5-min Rain = 0
KES1 071212Z 05007KT 02/M02 A3034 RMK A01 T00151019  RH  078%=      5-min Rain = 0
KES1 071213Z 04008KT 02/M02 A3034 RMK A01 T00151020  RH  078%=      5-min Rain = 0
KES1 071214Z 05006KT 01/M02 A3034 RMK A01 T00141021  RH  077%=      5-min Rain = 0
KES1 071215Z 06007KT 02/M02 A3034 RMK A01 T00151021  RH  077%=      5-min Rain = 0
KES1 071216Z 06007KT 02/M02 A3034 RMK A01 T00151021  RH  077%=      5-min Rain = 0
KES1 071217Z 05009KT 01/M02 A3034 RMK A01 T00141022  RH  077%=      5-min Rain = 0
KES1 071218Z 05008KT 01/M02 A3034 RMK A01 T00141024  RH  076%=      5-min Rain = 0
KES1 071219Z 05009KT 01/M02 A3034 RMK A01 T00141024  RH  076%=      5-min Rain = 0
KES1 071220Z 06009KT 01/M03 A3034 RMK A01 T00131025  RH  076%=      5-min Rain = 0
KES1 071221Z 05011KT 01/M03 A3034 RMK A01 T00131025  RH  076%=      5-min Rain = 0
KES1 071222Z 05010KT 01/M03 A3034 RMK A01 T00131025  RH  076%=      5-min Rain = 0
KES1 071223Z 06011KT 01/M03 A3034 RMK A01 T00131025  RH  076%=      5-min Rain = 0
KES1 071224Z 05009KT 01/M03 A3034 RMK A01 T00131025  RH  076%=      5-min Rain = 0
KES1 071225Z 05008KT 01/M03 A3034 RMK A01 T00131025  RH  076%=      5-min Rain = 0
KES1 071226Z 05009KT 01/M03 A3034 RMK A01 T00131025  RH  076%=      5-min Rain = 0
KES1 071227Z 05008KT 01/M02 A3034 RMK A01 T00131024  RH  076%=      5-min Rain = 0
KES1 071228Z 05010KT 01/M03 A3034 RMK A01 T00121025  RH  076%=      5-min Rain = 0
KES1 071229Z 05009KT 01/M03 A3034 RMK A01 T00121025  RH  076%=      5-min Rain = 0
KES1 071230Z 05009KT 01/M02 A3034 RMK A01 T00121024  RH  077%=      5-min Rain = 0
KES1 071231Z 05009KT 01/M02 A3034 RMK A01 T00121024  RH  077%=      5-min Rain = 0
KES1 071232Z 05010KT 01/M02 A3034 RMK A01 T00121024  RH  077%=      5-min Rain = 0
KES1 071233Z 04010KT 01/M02 A3034 RMK A01 T00121024  RH  077%=      5-min Rain = 0
KES1 071234Z 05009KT 01/M02 A3034 RMK A01 T00121024  RH  077%=      5-min Rain = 0
KES1 071235Z 04010KT 01/M02 A3034 RMK A01 T00121024  RH  077%=      5-min Rain = 0
KES1 071236Z 05009KT 01/M02 A3034 RMK A01 T00121024  RH  077%=      5-min Rain = 0
KES1 071237Z 05008KT 01/M02 A3034 RMK A01 T00111024  RH  077%=      5-min Rain = 0
KES1 071238Z 04008KT 01/M02 A3034 RMK A01 T00111024  RH  077%=      5-min Rain = 0
KES1 071239Z 05009KT 01/M02 A3033 RMK A01 T00111024  RH  077%=      5-min Rain = 0
KES1 071240Z 04008KT 01/M02 A3033 RMK A01 T00111024  RH  077%=      5-min Rain = 0
KES1 071241Z 04009KT 01/M02 A3033 RMK A01 T00111024  RH  078%=      5-min Rain = 0
KES1 071242Z 04010KT 01/M02 A3033 RMK A01 T00111024  RH  077%=      5-min Rain = 0
KES1 071243Z 04012KT 01/M03 A3033 RMK A01 T00101025  RH  077%=      5-min Rain = 0
KES1 071244Z 04011KT 01/M03 A3033 RMK A01 T00101025  RH  077%=      5-min Rain = 0
KES1 071245Z 04011KT 01/M03 A3033 RMK A01 T00101025  RH  077%=      5-min Rain = 0
KES1 071246Z 04009KT 01/M03 A3033 RMK A01 T00091025  RH  077%=      5-min Rain = 0
KES1 071247Z 04010KT 01/M03 A3033 RMK A01 T00101025  RH  078%=      5-min Rain = 0
KES1 071248Z 05011KT 01/M03 A3033 RMK A01 T00091026  RH  077%=      5-min Rain = 0
KES1 071249Z 05013KT 01/M03 A3033 RMK A01 T00091026  RH  077%=      5-min Rain = 0
KES1 071250Z 05012KT 01/M03 A3033 RMK A01 T00091027  RH  077%=      5-min Rain = 0
KES1 071251Z 05012KT 01/M03 A3033 RMK A01 T00091027  RH  077%=      5-min Rain = 0
KES1 071252Z 05010KT 01/M03 A3033 RMK A01 T00091026  RH  077%=      5-min Rain = 0
KES1 071253Z 05010KT 01/M03 A3033 RMK A01 T00091026  RH  077%=      5-min Rain = 0
KES1 071254Z 05010KT 01/M03 A3033 RMK A01 T00091027  RH  077%=      5-min Rain = 0
KES1 071255Z 04010KT 01/M03 A3033 RMK A01 T00091027  RH  077%=      5-min Rain = 0
KES1 071256Z 04011KT 01/M03 A3033 RMK A01 T00081027  RH  077%=      5-min Rain = 0
KES1 071257Z 04009KT 01/M03 A3033 RMK A01 T00091027  RH  077%=      5-min Rain = 0
KES1 071258Z 03009KT 01/M03 A3033 RMK A01 T00091027  RH  077%=      5-min Rain = 0
KES1 071259Z 04008KT 01/M03 A3034 RMK A01 T00081027  RH  077%=      5-min Rain = 0
KES1 071300Z 04009KT 01/M03 A3034 RMK A01 T00081027  RH  077%=      5-min Rain = 0
KES1 071301Z 04010KT 01/M03 A3034 RMK A01 T00091027  RH  077%=      5-min Rain = 0
KES1 071302Z 03009KT 01/M03 A3034 RMK A01 T00081028  RH  077%=      5-min Rain = 0
KES1 071303Z 04009KT 01/M03 A3034 RMK A01 T00081028  RH  077%=      5-min Rain = 0
KES1 071304Z 04008KT 01/M03 A3034 RMK A01 T00081029  RH  077%=      5-min Rain = 0
KES1 071305Z 03010KT 01/M03 A3035 RMK A01 T00081028  RH  077%=      5-min Rain = 0
KES1 071306Z 04009KT 01/M03 A3035 RMK A01 T00081029  RH  077%=      5-min Rain = 0
KES1 071307Z 03008KT 01/M03 A3035 RMK A01 T00081029  RH  077%=      5-min Rain = 0
KES1 071308Z 03008KT 01/M03 A3035 RMK A01 T00081028  RH  077%=      5-min Rain = 0
KES1 071309Z 03008KT 01/M03 A3035 RMK A01 T00081028  RH  077%=      5-min Rain = 0
KES1 071310Z 03007KT 01/M03 A3035 RMK A01 T00081028  RH  077%=      5-min Rain = 0
KES1 071311Z 02008KT 01/M03 A3036 RMK A01 T00081029  RH  077%=      5-min Rain = 0
KES1 071312Z 03008KT 01/M03 A3036 RMK A01 T00081029  RH  076%=      5-min Rain = 0
KES1 071313Z 03007KT 01/M03 A3036 RMK A01 T00081029  RH  076%=      5-min Rain = 0
KES1 071314Z 03007KT 01/M03 A3036 RMK A01 T00081030  RH  076%=      5-min Rain = 0
KES1 071315Z 02007KT 01/M03 A3036 RMK A01 T00081029  RH  076%=      5-min Rain = 0
KES1 071316Z 03006KT 01/M03 A3036 RMK A01 T00081029  RH  076%=      5-min Rain = 0
KES1 071317Z 03007KT 01/M03 A3036 RMK A01 T00081030  RH  076%=      5-min Rain = 0
KES1 071318Z 03008KT 01/M03 A3036 RMK A01 T00081030  RH  076%=      5-min Rain = 0
KES1 071319Z 02006KT 01/M03 A3036 RMK A01 T00081030  RH  076%=      5-min Rain = 0
KES1 071320Z 03009KT 01/M03 A3036 RMK A01 T00081031  RH  076%=      5-min Rain = 0
KES1 071321Z 03009KT 01/M03 A3036 RMK A01 T00081031  RH  076%=      5-min Rain = 0
KES1 071322Z 03007KT 01/M03 A3036 RMK A01 T00081031  RH  075%=      5-min Rain = 0
KES1 071323Z 02007KT 01/M03 A3036 RMK A01 T00081031  RH  076%=      5-min Rain = 0
KES1 071324Z 02008KT 01/M03 A3036 RMK A01 T00081031  RH  076%=      5-min Rain = 0
KES1 071325Z 02007KT 01/M03 A3036 RMK A01 T00081031  RH  076%=      5-min Rain = 0
KES1 071326Z 02007KT 01/M03 A3036 RMK A01 T00081031  RH  076%=      5-min Rain = 0
KES1 071327Z 02006KT 01/M03 A3036 RMK A01 T00081031  RH  076%=      5-min Rain = 0
KES1 071328Z 03007KT 01/M03 A3037 RMK A01 T00081030  RH  076%=      5-min Rain = 0
KES1 071329Z 02008KT 01/M03 A3037 RMK A01 T00081030  RH  076%=      5-min Rain = 0
KES1 071330Z 02007KT 01/M03 A3037 RMK A01 T00071031  RH  076%=      5-min Rain = 0
KES1 071331Z 02008KT 01/M03 A3037 RMK A01 T00071031  RH  076%=      5-min Rain = 0
KES1 071332Z 02008KT 01/M03 A3037 RMK A01 T00071031  RH  075%=      5-min Rain = 0
KES1 071333Z 03009KT 01/M03 A3037 RMK A01 T00061032  RH  076%=      5-min Rain = 0
KES1 071334Z 03009KT 01/M03 A3037 RMK A01 T00071032  RH  076%=      5-min Rain = 0
KES1 071335Z 03009KT 01/M03 A3036 RMK A01 T00071031  RH  076%=      5-min Rain = 0
KES1 071336Z 03008KT 01/M03 A3036 RMK A01 T00071031  RH  076%=      5-min Rain = 0
KES1 071337Z 03007KT 01/M03 A3036 RMK A01 T00061031  RH  076%=      5-min Rain = 0
KES1 071338Z 03005KT 01/M03 A3037 RMK A01 T00061031  RH  076%=      5-min Rain = 0
KES1 071339Z 02007KT 01/M03 A3037 RMK A01 T00061031  RH  076%=      5-min Rain = 0
KES1 071340Z 02008KT 01/M03 A3037 RMK A01 T00061031  RH  076%=      5-min Rain = 0
KES1 071341Z 02008KT 01/M03 A3037 RMK A01 T00061031  RH  076%=      5-min Rain = 0
KES1 071342Z 03007KT 01/M03 A3037 RMK A01 T00061032  RH  076%=      5-min Rain = 0
KES1 071343Z 03007KT 01/M03 A3037 RMK A01 T00061031  RH  076%=      5-min Rain = 0
KES1 071344Z 02007KT 01/M03 A3037 RMK A01 T00061031  RH  076%=      5-min Rain = 0
KES1 071345Z 02009KT 01/M03 A3037 RMK A01 T00061031  RH  076%=      5-min Rain = 0
KES1 071346Z 03009KT 01/M03 A3037 RMK A01 T00061031  RH  076%=      5-min Rain = 0
KES1 071347Z 03007KT 01/M03 A3037 RMK A01 T00061032  RH  076%=      5-min Rain = 0
KES1 071348Z 03007KT 01/M03 A3037 RMK A01 T00061031  RH  076%=      5-min Rain = 0
KES1 071349Z 03006KT 01/M03 A3037 RMK A01 T00061031  RH  076%=      5-min Rain = 0
KES1 071350Z 03005KT 01/M03 A3037 RMK A01 T00061031  RH  076%=      5-min Rain = 0
KES1 071351Z 03004KT 01/M03 A3037 RMK A01 T00061031  RH  076%=      5-min Rain = 0
KES1 071352Z 03007KT 01/M03 A3037 RMK A01 T00061031  RH  076%=      5-min Rain = 0
KES1 071353Z 02008KT 01/M03 A3037 RMK A01 T00061031  RH  076%=      5-min Rain = 0
KES1 071354Z 03009KT 01/M03 A3037 RMK A01 T00061031  RH  076%=      5-min Rain = 0
KES1 071355Z 04008KT 01/M03 A3037 RMK A01 T00061031  RH  076%=      5-min Rain = 0
KES1 071356Z 04008KT 01/M03 A3037 RMK A01 T00061031  RH  076%=      5-min Rain = 0
KES1 071357Z 03009KT 01/M03 A3037 RMK A01 T00061031  RH  076%=      5-min Rain = 0
KES1 071358Z 02009KT 01/M03 A3037 RMK A01 T00061032  RH  076%=      5-min Rain = 0
KES1 071359Z 03008KT 01/M03 A3037 RMK A01 T00061032  RH  076%=      5-min Rain = 0
KES1 071400Z 03008KT 01/M03 A3037 RMK A01 T00061032  RH  076%=      5-min Rain = 0
KES1 071401Z 03007KT 01/M03 A3037 RMK A01 T00061032  RH  076%=      5-min Rain = 0
KES1 071402Z 02006KT 01/M03 A3037 RMK A01 T00061032  RH  076%=      5-min Rain = 0
KES1 071403Z 02006KT 01/M03 A3037 RMK A01 T00061032  RH  076%=      5-min Rain = 0
KES1 071404Z 02006KT 01/M03 A3038 RMK A01 T00061032  RH  076%=      5-min Rain = 0
KES1 071405Z 02006KT 01/M03 A3038 RMK A01 T00061032  RH  076%=      5-min Rain = 0
KES1 071406Z 02005KT 01/M03 A3038 RMK A01 T00061033  RH  075%=      5-min Rain = 0
KES1 071407Z 02005KT 01/M03 A3038 RMK A01 T00061032  RH  076%=      5-min Rain = 0
KES1 071408Z 02005KT 01/M03 A3038 RMK A01 T00061032  RH  076%=      5-min Rain = 0
KES1 071409Z 01007KT 01/M03 A3038 RMK A01 T00061032  RH  076%=      5-min Rain = 0
KES1 071410Z 02008KT 01/M03 A3038 RMK A01 T00061033  RH  075%=      5-min Rain = 0
KES1 071411Z 03007KT 01/M03 A3038 RMK A01 T00061033  RH  075%=      5-min Rain = 0
KES1 071412Z 03006KT 01/M03 A3038 RMK A01 T00061033  RH  075%=      5-min Rain = 0
KES1 071413Z 03005KT 01/M03 A3038 RMK A01 T00061033  RH  075%=      5-min Rain = 0
KES1 071414Z 04006KT 01/M03 A3038 RMK A01 T00061032  RH  076%=      5-min Rain = 0
KES1 071415Z 03007KT 01/M03 A3038 RMK A01 T00061032  RH  076%=      5-min Rain = 0
KES1 071416Z 04006KT 01/M03 A3038 RMK A01 T00061032  RH  076%=      5-min Rain = 0
KES1 071417Z 04007KT 01/M03 A3038 RMK A01 T00061032  RH  076%=      5-min Rain = 0
KES1 071418Z 04006KT 01/M03 A3038 RMK A01 T00061033  RH  075%=      5-min Rain = 0
KES1 071419Z 03008KT 01/M03 A3038 RMK A01 T00061033  RH  075%=      5-min Rain = 0
KES1 071420Z 03008KT 01/M03 A3038 RMK A01 T00061034  RH  075%=      5-min Rain = 0
KES1 071421Z 02007KT 01/M03 A3038 RMK A01 T00061034  RH  075%=      5-min Rain = 0
KES1 071422Z 03005KT 01/M03 A3038 RMK A01 T00051034  RH  075%=      5-min Rain = 0
KES1 071423Z 03006KT 01/M03 A3038 RMK A01 T00051034  RH  075%=      5-min Rain = 0
KES1 071424Z 03006KT 01/M03 A3038 RMK A01 T00051034  RH  075%=      5-min Rain = 0
KES1 071425Z 02008KT 01/M03 A3038 RMK A01 T00051034  RH  075%=      5-min Rain = 0
KES1 071426Z 03008KT 01/M04 A3038 RMK A01 T00051035  RH  075%=      5-min Rain = 0
KES1 071427Z 03005KT 01/M04 A3038 RMK A01 T00051035  RH  075%=      5-min Rain = 0
KES1 071428Z 03005KT 01/M03 A3038 RMK A01 T00051034  RH  075%=      5-min Rain = 0
KES1 071429Z 04006KT 01/M03 A3038 RMK A01 T00051034  RH  075%=      5-min Rain = 0
KES1 071430Z 02006KT 01/M03 A3038 RMK A01 T00061033  RH  075%=      5-min Rain = 0
KES1 071431Z 03005KT 01/M03 A3038 RMK A01 T00061034  RH  075%=      5-min Rain = 0
KES1 071432Z 02009KT 01/M03 A3038 RMK A01 T00061033  RH  075%=      5-min Rain = 0
KES1 071433Z 03008KT 01/M03 A3038 RMK A01 T00061034  RH  074%=      5-min Rain = 0
KES1 071434Z 02008KT 01/M04 A3038 RMK A01 T00061035  RH  074%=      5-min Rain = 0
KES1 071435Z 02009KT 01/M03 A3038 RMK A01 T00061034  RH  075%=      5-min Rain = 0
KES1 071436Z 02009KT 01/M03 A3038 RMK A01 T00061034  RH  075%=      5-min Rain = 0
KES1 071437Z 04009KT 01/M03 A3038 RMK A01 T00051034  RH  075%=      5-min Rain = 0
KES1 071438Z 04007KT 01/M03 A3038 RMK A01 T00051034  RH  075%=      5-min Rain = 0
KES1 071439Z 04007KT 01/M03 A3038 RMK A01 T00051034  RH  075%=      5-min Rain = 0
KES1 071440Z 03010KT 01/M03 A3038 RMK A01 T00051034  RH  075%=      5-min Rain = 0
KES1 071441Z 03008KT 01/M03 A3038 RMK A01 T00051034  RH  075%=      5-min Rain = 0
KES1 071442Z 03008KT 01/M03 A3038 RMK A01 T00051034  RH  075%=      5-min Rain = 0
KES1 071443Z 03007KT 01/M03 A3038 RMK A01 T00051034  RH  075%=      5-min Rain = 0
KES1 071444Z 04009KT 01/M03 A3038 RMK A01 T00061034  RH  075%=      5-min Rain = 0
KES1 071445Z 04007KT 01/M03 A3038 RMK A01 T00061034  RH  075%=      5-min Rain = 0
KES1 071446Z 04009KT 01/M03 A3038 RMK A01 T00051034  RH  075%=      5-min Rain = 0
KES1 071447Z 04007KT 01/M03 A3038 RMK A01 T00051034  RH  075%=      5-min Rain = 0
KES1 071448Z 04007KT 01/M03 A3038 RMK A01 T00051034  RH  075%=      5-min Rain = 0
KES1 071449Z 04008KT 01/M03 A3038 RMK A01 T00051034  RH  075%=      5-min Rain = 0
KES1 071450Z 03008KT 01/M03 A3038 RMK A01 T00061034  RH  075%=      5-min Rain = 0
KES1 071451Z 03010KT 01/M03 A3038 RMK A01 T00051034  RH  075%=      5-min Rain = 0
KES1 071452Z 04009KT 01/M03 A3038 RMK A01 T00051034  RH  075%=      5-min Rain = 0
KES1 071453Z 05008KT 01/M03 A3038 RMK A01 T00051034  RH  075%=      5-min Rain = 0
KES1 071454Z 04007KT 01/M03 A3038 RMK A01 T00051034  RH  075%=      5-min Rain = 0
KES1 071455Z 04008KT 01/M03 A3038 RMK A01 T00051033  RH  075%=      5-min Rain = 0
KES1 071456Z 04008KT 01/M03 A3038 RMK A01 T00051034  RH  075%=      5-min Rain = 0
KES1 071457Z 05008KT 01/M03 A3038 RMK A01 T00051034  RH  075%=      5-min Rain = 0
KES1 071458Z 05005KT 01/M03 A3038 RMK A01 T00051034  RH  075%=      5-min Rain = 0
KES1 071459Z 03005KT 01/M03 A3038 RMK A01 T00051034  RH  075%=      5-min Rain = 0
KES1 071500Z 02006KT 01/M03 A3039 RMK A01 T00051034  RH  075%=      5-min Rain = 0
KES1 071501Z 02007KT 01/M03 A3039 RMK A01 T00061034  RH  074%=      5-min Rain = 0
KES1 071502Z 02005KT 01/M04 A3039 RMK A01 T00061035  RH  074%=      5-min Rain = 0
KES1 071503Z 02005KT 01/M04 A3039 RMK A01 T00061035  RH  074%=      5-min Rain = 0
KES1 071504Z 01007KT 01/M04 A3039 RMK A01 T00061035  RH  074%=      5-min Rain = 0
KES1 071505Z 01009KT 01/M04 A304 RMK A01 T00061035  RH  074%=      5-min Rain = 0
KES1 071506Z 00008KT 01/M04 A304 RMK A01 T00061035  RH  074%=      5-min Rain = 0
KES1 071507Z 01009KT 01/M04 A304 RMK A01 T00061035  RH  074%=      5-min Rain = 0
KES1 071508Z 01008KT 01/M04 A304 RMK A01 T00051035  RH  074%=      5-min Rain = 0
KES1 071509Z 01007KT 01/M04 A304 RMK A01 T00051035  RH  074%=      5-min Rain = 0
KES1 071510Z 01007KT 01/M04 A304 RMK A01 T00051035  RH  074%=      5-min Rain = 0
KES1 071511Z 01007KT 01/M04 A304 RMK A01 T00051035  RH  074%=      5-min Rain = 0
KES1 071512Z 01009KT 01/M04 A304 RMK A01 T00051036  RH  074%=      5-min Rain = 0
KES1 071513Z 02009KT 01/M04 A304 RMK A01 T00051036  RH  074%=      5-min Rain = 0
KES1 071514Z 02008KT 01/M04 A304 RMK A01 T00051036  RH  074%=      5-min Rain = 0
KES1 071515Z 01006KT 01/M04 A304 RMK A01 T00051035  RH  074%=      5-min Rain = 0
KES1 071516Z 03007KT 01/M04 A304 RMK A01 T00051035  RH  074%=      5-min Rain = 0
KES1 071517Z 02007KT 01/M04 A304 RMK A01 T00051035  RH  074%=      5-min Rain = 0
KES1 071518Z 02008KT 01/M04 A304 RMK A01 T00051036  RH  074%=      5-min Rain = 0
KES1 071519Z 02008KT 01/M04 A304 RMK A01 T00051036  RH  074%=      5-min Rain = 0
KES1 071520Z 03007KT 01/M04 A304 RMK A01 T00051035  RH  075%=      5-min Rain = 0
KES1 071521Z 03006KT 01/M03 A304 RMK A01 T00051034  RH  075%=      5-min Rain = 0
KES1 071522Z 03008KT 01/M03 A3041 RMK A01 T00051034  RH  075%=      5-min Rain = 0
KES1 071523Z 03007KT 01/M03 A3041 RMK A01 T00051034  RH  075%=      5-min Rain = 0
KES1 071524Z 03007KT 01/M04 A304 RMK A01 T00051035  RH  075%=      5-min Rain = 0
KES1 071525Z 03006KT 01/M04 A3041 RMK A01 T00051035  RH  075%=      5-min Rain = 0
KES1 071526Z 03006KT 01/M03 A3041 RMK A01 T00051034  RH  075%=      5-min Rain = 0
KES1 071527Z 03007KT 01/M03 A3041 RMK A01 T00051034  RH  075%=      5-min Rain = 0
KES1 071528Z 02007KT 01/M03 A3041 RMK A01 T00051033  RH  076%=      5-min Rain = 0
KES1 071529Z 02006KT 01/M03 A3041 RMK A01 T00051034  RH  075%=      5-min Rain = 0
KES1 071530Z 01007KT 01/M03 A3041 RMK A01 T00051034  RH  075%=      5-min Rain = 0
KES1 071531Z 02006KT 01/M03 A3041 RMK A01 T00051034  RH  075%=      5-min Rain = 0
KES1 071532Z 02006KT 01/M03 A3041 RMK A01 T00051033  RH  076%=      5-min Rain = 0
KES1 071533Z 01006KT 01/M03 A304 RMK A01 T00061033  RH  075%=      5-min Rain = 0
KES1 071534Z 02008KT 01/M03 A304 RMK A01 T00061033  RH  075%=      5-min Rain = 0
KES1 071535Z 01007KT 01/M03 A304 RMK A01 T00061034  RH  075%=      5-min Rain = 0
KES1 071536Z 01007KT 01/M03 A304 RMK A01 T00061033  RH  075%=      5-min Rain = 0
KES1 071537Z 01007KT 01/M03 A304 RMK A01 T00061033  RH  075%=      5-min Rain = 0
KES1 071538Z 01007KT 01/M03 A304 RMK A01 T00061032  RH  076%=      5-min Rain = 0
KES1 071539Z 02008KT 01/M03 A304 RMK A01 T00061032  RH  076%=      5-min Rain = 0
KES1 071540Z 02008KT 01/M03 A304 RMK A01 T00061033  RH  075%=      5-min Rain = 0
KES1 071541Z 01009KT 01/M03 A304 RMK A01 T00061034  RH  075%=      5-min Rain = 0
KES1 071542Z 01009KT 01/M03 A304 RMK A01 T00061034  RH  075%=      5-min Rain = 0
KES1 071543Z 02007KT 01/M03 A304 RMK A01 T00061034  RH  075%=      5-min Rain = 0
KES1 071544Z 02007KT 01/M03 A304 RMK A01 T00061033  RH  075%=      5-min Rain = 0
KES1 071545Z 01009KT 01/M03 A304 RMK A01 T00061034  RH  075%=      5-min Rain = 0
KES1 071546Z 01010KT 01/M03 A304 RMK A01 T00061034  RH  075%=      5-min Rain = 0
KES1 071547Z 01008KT 01/M03 A304 RMK A01 T00061034  RH  075%=      5-min Rain = 0
KES1 071548Z 02007KT 01/M03 A304 RMK A01 T00061034  RH  075%=      5-min Rain = 0
KES1 071549Z 02008KT 01/M03 A304 RMK A01 T00061033  RH  075%=      5-min Rain = 0
KES1 071550Z 02008KT 01/M03 A304 RMK A01 T00061034  RH  075%=      5-min Rain = 0
KES1 071551Z 01009KT 01/M03 A304 RMK A01 T00061034  RH  074%=      5-min Rain = 0
KES1 071552Z 01008KT 01/M03 A304 RMK A01 T00061034  RH  074%=      5-min Rain = 0
KES1 071553Z 01009KT 01/M03 A304 RMK A01 T00061033  RH  075%=      5-min Rain = 0
KES1 071554Z 01009KT 01/M03 A304 RMK A01 T00061032  RH  076%=      5-min Rain = 0
KES1 071555Z 02007KT 01/M03 A304 RMK A01 T00061031  RH  076%=      5-min Rain = 0
KES1 071556Z 01006KT 01/M03 A304 RMK A01 T00061029  RH  077%=      5-min Rain = 0
KES1 071557Z 01009KT 01/M03 A304 RMK A01 T00061027  RH  078%=      5-min Rain = 0
KES1 071558Z 01008KT 01/M03 A304 RMK A01 T00061029  RH  078%=      5-min Rain = 0
KES1 071559Z 01008KT 01/M03 A304 RMK A01 T00061027  RH  079%=      5-min Rain = 0
KES1 071600Z 01009KT 01/M03 A304 RMK A01 T00061027  RH  079%=      5-min Rain = 0
KES1 071601Z 01008KT 01/M03 A304 RMK A01 T00051028  RH  078%=      5-min Rain = 0
KES1 071602Z 01008KT 01/M03 A304 RMK A01 T00051028  RH  079%=      5-min Rain = 0
KES1 071603Z 02007KT 01/M03 A304 RMK A01 T00051027  RH  079%=      5-min Rain = 0
KES1 071604Z 01007KT 01/M03 A304 RMK A01 T00051027  RH  079%=      5-min Rain = 0
KES1 071605Z 01007KT 01/M03 A304 RMK A01 T00051026  RH  080%=      5-min Rain = 0
KES1 071606Z 01008KT 01/M03 A304 RMK A01 T00051026  RH  080%=      5-min Rain = 0
KES1 071607Z 01006KT 01/M03 A304 RMK A01 T00051026  RH  080%=      5-min Rain = 0
KES1 071608Z 02007KT 01/M02 A304 RMK A01 T00051024  RH  081%=      5-min Rain = 0
KES1 071609Z 01007KT 01/M03 A304 RMK A01 T00051025  RH  080%=      5-min Rain = 0
KES1 071610Z 01007KT 01/M03 A304 RMK A01 T00051028  RH  079%=      5-min Rain = 0
KES1 071611Z 02006KT 01/M03 A304 RMK A01 T00051028  RH  078%=      5-min Rain = 0
KES1 071612Z 00008KT 01/M03 A304 RMK A01 T00051027  RH  079%=      5-min Rain = 0
KES1 071613Z 01008KT 01/M03 A304 RMK A01 T00051029  RH  078%=      5-min Rain = 0
KES1 071614Z 02006KT 01/M03 A304 RMK A01 T00051030  RH  077%=      5-min Rain = 0
KES1 071615Z 01007KT 01/M03 A304 RMK A01 T00051027  RH  079%=      5-min Rain = 0
KES1 071616Z 01008KT 01/M03 A304 RMK A01 T00051027  RH  079%=      5-min Rain = 0
KES1 071617Z 01006KT 01/M03 A304 RMK A01 T00051028  RH  078%=      5-min Rain = 0
KES1 071618Z 02006KT 01/M03 A304 RMK A01 T00051027  RH  079%=      5-min Rain = 0
KES1 071619Z 02007KT 01/M03 A304 RMK A01 T00051029  RH  078%=      5-min Rain = 0
KES1 071620Z 02007KT 01/M03 A3041 RMK A01 T00051030  RH  077%=      5-min Rain = 0
KES1 071621Z 02005KT 01/M03 A3041 RMK A01 T00051030  RH  077%=      5-min Rain = 0
KES1 071622Z 02006KT 01/M03 A3041 RMK A01 T00051030  RH  077%=      5-min Rain = 0
KES1 071623Z 03005KT 01/M03 A3041 RMK A01 T00051030  RH  077%=      5-min Rain = 0
KES1 071624Z 03005KT 01/M03 A3041 RMK A01 T00051029  RH  078%=      5-min Rain = 0
KES1 071625Z 02005KT 01/M03 A3041 RMK A01 T00051028  RH  078%=      5-min Rain = 0
KES1 071626Z 00005KT 01/M03 A3041 RMK A01 T00051028  RH  078%=      5-min Rain = 0
KES1 071627Z 00006KT 01/M03 A3042 RMK A01 T00061029  RH  078%=      5-min Rain = 0
KES1 071628Z 01007KT 01/M03 A3042 RMK A01 T00061030  RH  077%=      5-min Rain = 0
KES1 071629Z 01006KT 01/M03 A3042 RMK A01 T00061031  RH  076%=      5-min Rain = 0
KES1 071630Z 00005KT 01/M03 A3042 RMK A01 T00061030  RH  077%=      5-min Rain = 0
KES1 071631Z 01005KT 01/M03 A3042 RMK A01 T00061027  RH  079%=      5-min Rain = 0
KES1 071632Z 01005KT 01/M03 A3042 RMK A01 T00071028  RH  077%=      5-min Rain = 0
KES1 071633Z 02005KT 01/M03 A3042 RMK A01 T00071028  RH  077%=      5-min Rain = 0
KES1 071634Z 02006KT 01/M03 A3042 RMK A01 T00071030  RH  076%=      5-min Rain = 0
KES1 071635Z 00005KT 01/M03 A3042 RMK A01 T00071032  RH  076%=      5-min Rain = 0
KES1 071636Z 35007KT 01/M03 A3041 RMK A01 T00071029  RH  077%=      5-min Rain = 0
KES1 071637Z 35006KT 01/M03 A3041 RMK A01 T00071031  RH  076%=      5-min Rain = 0
KES1 071638Z 35006KT 01/M03 A3041 RMK A01 T00071030  RH  076%=      5-min Rain = 0
KES1 071639Z 01005KT 01/M03 A3041 RMK A01 T00071028  RH  078%=      5-min Rain = 0
KES1 071640Z 01005KT 01/M03 A3041 RMK A01 T00071030  RH  076%=      5-min Rain = 0
KES1 071641Z 01006KT 01/M03 A3041 RMK A01 T00071030  RH  076%=      5-min Rain = 0
KES1 071642Z 02006KT 01/M03 A3041 RMK A01 T00071031  RH  076%=      5-min Rain = 0
KES1 071643Z 01005KT 01/M03 A3041 RMK A01 T00071031  RH  076%=      5-min Rain = 0
KES1 071644Z 01006KT 01/M03 A3041 RMK A01 T00081030  RH  076%=      5-min Rain = 0
KES1 071645Z 01007KT 01/M03 A3041 RMK A01 T00081031  RH  075%=      5-min Rain = 0
KES1 071646Z 01007KT 01/M03 A3041 RMK A01 T00081032  RH  074%=      5-min Rain = 0
KES1 071647Z 01006KT 01/M03 A3041 RMK A01 T00081033  RH  074%=      5-min Rain = 0
KES1 071648Z 01007KT 01/M03 A3041 RMK A01 T00081032  RH  075%=      5-min Rain = 0
KES1 071649Z 01006KT 01/M03 A3041 RMK A01 T00081033  RH  074%=      5-min Rain = 0
KES1 071650Z 02006KT 01/M03 A3041 RMK A01 T00081032  RH  075%=      5-min Rain = 0
KES1 071651Z 02006KT 01/M03 A3041 RMK A01 T00081034  RH  074%=      5-min Rain = 0
KES1 071652Z 01006KT 01/M03 A3041 RMK A01 T00081033  RH  074%=      5-min Rain = 0
KES1 071653Z 01007KT 01/M03 A3041 RMK A01 T00091034  RH  073%=      5-min Rain = 0
KES1 071654Z 02007KT 01/M03 A3041 RMK A01 T00091034  RH  073%=      5-min Rain = 0
KES1 071655Z 02005KT 01/M04 A3041 RMK A01 T00081035  RH  073%=      5-min Rain = 0
KES1 071656Z 02006KT 01/M03 A3041 RMK A01 T00081034  RH  073%=      5-min Rain = 0
KES1 071657Z 02006KT 01/M03 A304 RMK A01 T00081034  RH  073%=      5-min Rain = 0
KES1 071658Z 02007KT 01/M03 A304 RMK A01 T00081034  RH  073%=      5-min Rain = 0
KES1 071659Z 03006KT 01/M03 A304 RMK A01 T00091033  RH  073%=      5-min Rain = 0
KES1 071700Z 03006KT 01/M03 A304 RMK A01 T00091033  RH  074%=      5-min Rain = 0
KES1 071701Z 02007KT 01/M03 A304 RMK A01 T00091033  RH  073%=      5-min Rain = 0
KES1 071702Z 01007KT 01/M03 A304 RMK A01 T00091034  RH  073%=      5-min Rain = 0
KES1 071703Z 02007KT 01/M03 A304 RMK A01 T00091034  RH  073%=      5-min Rain = 0
KES1 071704Z 01007KT 01/M03 A304 RMK A01 T00091034  RH  073%=      5-min Rain = 0
KES1 071705Z 01006KT 01/M03 A304 RMK A01 T00091034  RH  073%=      5-min Rain = 0
KES1 071706Z 02005KT 01/M03 A3039 RMK A01 T00091034  RH  073%=      5-min Rain = 0
KES1 071707Z 03005KT 01/M03 A3039 RMK A01 T00091034  RH  073%=      5-min Rain = 0
KES1 071708Z 03005KT 01/M04 A3039 RMK A01 T00091035  RH  073%=      5-min Rain = 0
KES1 071709Z 01005KT 01/M03 A3039 RMK A01 T00091033  RH  074%=      5-min Rain = 0
KES1 071710Z 01004KT 01/M03 A3039 RMK A01 T00091033  RH  073%=      5-min Rain = 0
KES1 071711Z 00005KT 01/M03 A3039 RMK A01 T00101032  RH  074%=      5-min Rain = 0
KES1 071712Z 01005KT 01/M03 A3039 RMK A01 T00101031  RH  074%=      5-min Rain = 0
KES1 071713Z 02005KT 01/M03 A3039 RMK A01 T00111031  RH  074%=      5-min Rain = 0
KES1 071714Z 03006KT 01/M03 A3039 RMK A01 T00111033  RH  073%=      5-min Rain = 0
KES1 071715Z 03007KT 01/M03 A3039 RMK A01 T00111034  RH  072%=      5-min Rain = 0
KES1 071716Z 03007KT 01/M04 A3039 RMK A01 T00101035  RH  072%=      5-min Rain = 0
KES1 071717Z 03007KT 01/M03 A3039 RMK A01 T00101034  RH  072%=      5-min Rain = 0
KES1 071718Z 03007KT 01/M03 A3038 RMK A01 T00101034  RH  072%=      5-min Rain = 0
KES1 071719Z 04006KT 01/M03 A3038 RMK A01 T00101034  RH  072%=      5-min Rain = 0
KES1 071720Z 05006KT 01/M03 A3038 RMK A01 T00101033  RH  073%=      5-min Rain = 0
KES1 071721Z 05007KT 01/M03 A3038 RMK A01 T00101034  RH  072%=      5-min Rain = 0
KES1 071722Z 05007KT 01/M03 A3038 RMK A01 T00111034  RH  072%=      5-min Rain = 0
KES1 071723Z 04008KT 01/M03 A3038 RMK A01 T00101034  RH  072%=      5-min Rain = 0
KES1 071724Z 05006KT 01/M04 A3038 RMK A01 T00101035  RH  072%=      5-min Rain = 0
KES1 071725Z 05006KT 01/M03 A3038 RMK A01 T00111034  RH  072%=      5-min Rain = 0
KES1 071726Z 05006KT 01/M03 A3038 RMK A01 T00101034  RH  072%=      5-min Rain = 0
KES1 071727Z 04007KT 01/M03 A3038 RMK A01 T00111033  RH  073%=      5-min Rain = 0
KES1 071728Z 04006KT 01/M03 A3038 RMK A01 T00111033  RH  072%=      5-min Rain = 0
KES1 071729Z 04004KT 01/M03 A3038 RMK A01 T00111033  RH  072%=      5-min Rain = 0
KES1 071730Z 05007KT 01/M03 A3037 RMK A01 T00121032  RH  073%=      5-min Rain = 0
KES1 071731Z 05007KT 01/M03 A3037 RMK A01 T00121033  RH  072%=      5-min Rain = 0
KES1 071732Z 05006KT 01/M03 A3037 RMK A01 T00121034  RH  071%=      5-min Rain = 0
KES1 071733Z 03005KT 01/M03 A3037 RMK A01 T00121034  RH  071%=      5-min Rain = 0
KES1 071734Z 04005KT 01/M04 A3037 RMK A01 T00121035  RH  071%=      5-min Rain = 0
KES1 071735Z 04005KT 01/M04 A3038 RMK A01 T00121036  RH  071%=      5-min Rain = 0
KES1 071736Z 04005KT 01/M04 A3038 RMK A01 T00121035  RH  071%=      5-min Rain = 0
KES1 071737Z 05006KT 01/M04 A3038 RMK A01 T00121035  RH  071%=      5-min Rain = 0
KES1 071738Z 04006KT 01/M04 A3038 RMK A01 T00121035  RH  071%=      5-min Rain = 0
KES1 071739Z 03005KT 01/M03 A3038 RMK A01 T00121034  RH  071%=      5-min Rain = 0
KES1 071740Z 02006KT 01/M04 A3038 RMK A01 T00121035  RH  071%=      5-min Rain = 0
KES1 071741Z 01007KT 01/M04 A3038 RMK A01 T00121035  RH  071%=      5-min Rain = 0
KES1 071742Z 02006KT 01/M04 A3038 RMK A01 T00121036  RH  071%=      5-min Rain = 0
KES1 071743Z 00006KT 01/M04 A3038 RMK A01 T00111036  RH  071%=      5-min Rain = 0
KES1 071744Z 01006KT 01/M04 A3038 RMK A01 T00111035  RH  071%=      5-min Rain = 0
KES1 071745Z 02005KT 01/M04 A3038 RMK A01 T00111036  RH  071%=      5-min Rain = 0
KES1 071746Z 36005KT 01/M04 A3038 RMK A01 T00121035  RH  071%=      5-min Rain = 0
KES1 071747Z 02004KT 01/M03 A3038 RMK A01 T00131032  RH  072%=      5-min Rain = 0
KES1 071748Z 01004KT 01/M03 A3038 RMK A01 T00141033  RH  071%=      5-min Rain = 0
KES1 071749Z 01004KT 01/M04 A3038 RMK A01 T00131035  RH  070%=      5-min Rain = 0
KES1 071750Z 01004KT 01/M03 A3038 RMK A01 T00131034  RH  071%=      5-min Rain = 0
KES1 071751Z 00005KT 01/M03 A3038 RMK A01 T00131034  RH  071%=      5-min Rain = 0
KES1 071752Z 01005KT 01/M04 A3038 RMK A01 T00121036  RH  070%=      5-min Rain = 0
KES1 071753Z 00005KT 01/M04 A3038 RMK A01 T00111036  RH  071%=      5-min Rain = 0
KES1 071754Z 36005KT 01/M04 A3038 RMK A01 T00101036  RH  071%=      5-min Rain = 0
KES1 071755Z 36005KT 01/M03 A3038 RMK A01 T00111033  RH  073%=      5-min Rain = 0
KES1 071756Z 36006KT 01/M03 A3038 RMK A01 T00111032  RH  073%=      5-min Rain = 0
KES1 071757Z 36005KT 01/M03 A3037 RMK A01 T00111033  RH  072%=      5-min Rain = 0
KES1 071758Z 36005KT 01/M03 A3037 RMK A01 T00111033  RH  072%=      5-min Rain = 0
KES1 071759Z 35006KT 01/M03 A3037 RMK A01 T00111033  RH  072%=      5-min Rain = 0
KES1 071800Z 35005KT 01/M03 A3037 RMK A01 T00111032  RH  073%=      5-min Rain = 0
KES1 071801Z 35005KT 01/M03 A3037 RMK A01 T00111032  RH  073%=      5-min Rain = 0
KES1 071802Z 00004KT 01/M03 A3037 RMK A01 T00111033  RH  072%=      5-min Rain = 0
KES1 071803Z 35004KT 01/M03 A3037 RMK A01 T00111032  RH  073%=      5-min Rain = 0
KES1 071804Z 35003KT 01/M03 A3037 RMK A01 T00111032  RH  073%=      5-min Rain = 0
KES1 071805Z 02003KT 01/M03 A3037 RMK A01 T00111031  RH  074%=      5-min Rain = 0
KES1 071806Z 04003KT 01/M03 A3037 RMK A01 T00121029  RH  074%=      5-min Rain = 0
KES1 071807Z 03004KT 01/M03 A3037 RMK A01 T00121029  RH  074%=      5-min Rain = 0
KES1 071808Z 04004KT 01/M03 A3037 RMK A01 T00131030  RH  073%=      5-min Rain = 0
KES1 071809Z 03003KT 01/M03 A3037 RMK A01 T00131030  RH  073%=      5-min Rain = 0
KES1 071810Z 03005KT 01/M03 A3037 RMK A01 T00131030  RH  073%=      5-min Rain = 0
KES1 071811Z 03005KT 01/M03 A3037 RMK A01 T00131028  RH  074%=      5-min Rain = 0
KES1 071812Z 03005KT 01/M03 A3036 RMK A01 T00131029  RH  074%=      5-min Rain = 0
KES1 071813Z 03006KT 01/M03 A3036 RMK A01 T00121028  RH  075%=      5-min Rain = 0
KES1 071814Z 04004KT 01/M03 A3036 RMK A01 T00121027  RH  075%=      5-min Rain = 0
KES1 071815Z 03005KT 01/M03 A3036 RMK A01 T00121026  RH  076%=      5-min Rain = 0
KES1 071816Z 04005KT 01/M03 A3036 RMK A01 T00111027  RH  076%=      5-min Rain = 0
KES1 071817Z 04005KT 01/M03 A3036 RMK A01 T00111026  RH  076%=      5-min Rain = 0
KES1 071818Z 04005KT 01/M03 A3036 RMK A01 T00111025  RH  077%=      5-min Rain = 0
KES1 071819Z 03005KT 01/M02 A3036 RMK A01 T00111024  RH  077%=      5-min Rain = 0
KES1 071820Z 03005KT 01/M02 A3035 RMK A01 T00111023  RH  078%=      5-min Rain = 0
KES1 071821Z 03005KT 01/M02 A3035 RMK A01 T00111023  RH  078%=      5-min Rain = 0
KES1 071822Z 03004KT 01/M02 A3035 RMK A01 T00111023  RH  078%=      5-min Rain = 0
KES1 071823Z 03004KT 01/M02 A3035 RMK A01 T00101024  RH  078%=      5-min Rain = 0
KES1 071824Z 03004KT 01/M03 A3035 RMK A01 T00101025  RH  078%=      5-min Rain = 0
KES1 071825Z 05005KT 01/M02 A3035 RMK A01 T00101023  RH  078%=      5-min Rain = 0
KES1 071826Z 06006KT 01/M02 A3035 RMK A01 T00101020  RH  081%=      5-min Rain = 0
KES1 071827Z 05006KT 01/M02 A3035 RMK A01 T00101019  RH  081%=      5-min Rain = 0
KES1 071828Z 05005KT 01/M02 A3035 RMK A01 T00101015  RH  083%=      5-min Rain = 0
KES1 071829Z 04004KT 01/M02 A3035 RMK A01 T00101016  RH  083%=      5-min Rain = 0
KES1 071830Z 04004KT 01/M02 A3035 RMK A01 T00101018  RH  081%=      5-min Rain = 0
KES1 071831Z 05003KT 01/M02 A3035 RMK A01 T00101015  RH  083%=      5-min Rain = 0
KES1 071832Z 02003KT 01/M01 A3035 RMK A01 T00101012  RH  085%=      5-min Rain = 0
KES1 071833Z 05003KT 01/M01 A3035 RMK A01 T00111011  RH  085%=      5-min Rain = 0
KES1 071834Z 04004KT 01/M01 A3034 RMK A01 T00121009  RH  086%=      5-min Rain = 0
KES1 071835Z 04005KT 01/M01 A3034 RMK A01 T00121010  RH  085%=      5-min Rain = 0.01
KES1 071836Z 05003KT 01/M02 A3034 RMK A01 T00111016  RH  082%=      5-min Rain = 0
KES1 071837Z 05004KT 01/M02 A3034 RMK A01 T00111016  RH  082%=      5-min Rain = 0
KES1 071838Z 03003KT 01/M02 A3034 RMK A01 T00101016  RH  082%=      5-min Rain = 0
KES1 071839Z 03004KT 01/M02 A3034 RMK A01 T00101017  RH  082%=      5-min Rain = 0
KES1 071840Z 04004KT 01/M02 A3034 RMK A01 T00091019  RH  081%=      5-min Rain = 0
KES1 071841Z 04004KT 01/M02 A3034 RMK A01 T00091016  RH  083%=      5-min Rain = 0
KES1 071842Z 05004KT 01/M01 A3034 RMK A01 T00091013  RH  085%=      5-min Rain = 0
KES1 071843Z 05006KT 01/M01 A3033 RMK A01 T00091013  RH  085%=      5-min Rain = 0
KES1 071844Z 05006KT 01/M01 A3033 RMK A01 T00091014  RH  084%=      5-min Rain = 0
KES1 071845Z 05005KT 01/M01 A3033 RMK A01 T00091014  RH  084%=      5-min Rain = 0
KES1 071846Z 05006KT 01/M02 A3033 RMK A01 T00091016  RH  084%=      5-min Rain = 0
KES1 071847Z 04005KT 01/M02 A3033 RMK A01 T00091017  RH  083%=      5-min Rain = 0
KES1 071848Z 03003KT 01/M02 A3033 RMK A01 T00091015  RH  084%=      5-min Rain = 0
KES1 071849Z 03003KT 01/M01 A3033 RMK A01 T00081014  RH  085%=      5-min Rain = 0
KES1 071850Z 03003KT 01/M02 A3033 RMK A01 T00091016  RH  084%=      5-min Rain = 0
KES1 071851Z 04004KT 01/M02 A3033 RMK A01 T00091015  RH  084%=      5-min Rain = 0
KES1 071852Z 05005KT 01/M01 A3033 RMK A01 T00091014  RH  085%=      5-min Rain = 0
KES1 071853Z 05003KT 01/M01 A3033 RMK A01 T00091014  RH  084%=      5-min Rain = 0.01
KES1 071854Z 05003KT 01/M02 A3033 RMK A01 T00091016  RH  083%=      5-min Rain = 0
KES1 071855Z 04002KT 01/M01 A3033 RMK A01 T00101012  RH  086%=      5-min Rain = 0
KES1 071856Z 05003KT 01/M01 A3033 RMK A01 T00101010  RH  086%=      5-min Rain = 0
KES1 071857Z 06005KT 01/M01 A3033 RMK A01 T00101013  RH  084%=      5-min Rain = 0
KES1 071858Z 04005KT 01/M01 A3033 RMK A01 T00101014  RH  084%=      5-min Rain = 0
KES1 071859Z 04004KT 01/M01 A3033 RMK A01 T00101014  RH  084%=      5-min Rain = 0
KES1 071900Z 02004KT 01/M01 A3033 RMK A01 T00101014  RH  084%=      5-min Rain = 0
KES1 071901Z 02004KT 01/M01 A3033 RMK A01 T00101012  RH  085%=      5-min Rain = 0
KES1 071902Z 02003KT 01/M01 A3033 RMK A01 T00101013  RH  084%=      5-min Rain = 0
KES1 071903Z 02004KT 01/M01 A3033 RMK A01 T00111010  RH  086%=      5-min Rain = 0
KES1 071904Z 01003KT 01/M01 A3033 RMK A01 T00111012  RH  085%=      5-min Rain = 0
KES1 071905Z 03003KT 01/M01 A3033 RMK A01 T00111012  RH  085%=      5-min Rain = 0
KES1 071906Z 04004KT 01/M01 A3033 RMK A01 T00111009  RH  087%=      5-min Rain = 0
KES1 071907Z 05003KT 01/M01 A3033 RMK A01 T00111012  RH  085%=      5-min Rain = 0
KES1 071908Z 03004KT 01/M01 A3033 RMK A01 T00111009  RH  086%=      5-min Rain = 0
KES1 071909Z 03005KT 01/M01 A3033 RMK A01 T00121012  RH  085%=      5-min Rain = 0
KES1 071910Z 03006KT 01/M01 A3033 RMK A01 T00111013  RH  084%=      5-min Rain = 0
KES1 071911Z 03005KT 01/M01 A3033 RMK A01 T00111014  RH  084%=      5-min Rain = 0
KES1 071912Z 04003KT 01/M02 A3033 RMK A01 T00101015  RH  083%=      5-min Rain = 0
KES1 071913Z 05003KT 01/M02 A3033 RMK A01 T00101015  RH  084%=      5-min Rain = 0
KES1 071914Z 04003KT 01/M01 A3033 RMK A01 T00101013  RH  084%=      5-min Rain = 0
KES1 071915Z 05002KT 01/M01 A3033 RMK A01 T00101013  RH  085%=      5-min Rain = 0
KES1 071916Z 06002KT 01/M01 A3033 RMK A01 T00101013  RH  085%=      5-min Rain = 0
KES1 071917Z 04002KT 01/M01 A3033 RMK A01 T00091013  RH  085%=      5-min Rain = 0
KES1 071918Z 04002KT 01/M01 A3033 RMK A01 T00101010  RH  087%=      5-min Rain = 0
KES1 071919Z 03002KT 01/M01 A3033 RMK A01 T00111007  RH  088%=      5-min Rain = 0
KES1 071920Z 03003KT 01/M01 A3033 RMK A01 T00101008  RH  087%=      5-min Rain = 0
KES1 071921Z 03002KT 01/M01 A3033 RMK A01 T00101009  RH  087%=      5-min Rain = 0
KES1 071922Z 02003KT 01/M01 A3033 RMK A01 T00101011  RH  086%=      5-min Rain = 0
KES1 071923Z 04002KT 01/M01 A3033 RMK A01 T00101012  RH  085%=      5-min Rain = 0
KES1 071924Z 05002KT 01/M01 A3032 RMK A01 T00111008  RH  087%=      5-min Rain = 0
KES1 071925Z 06002KT 01/M01 A3032 RMK A01 T00111006  RH  088%=      5-min Rain = 0
KES1 071926Z 05003KT 01/M01 A3032 RMK A01 T00111009  RH  086%=      5-min Rain = 0
KES1 071927Z 06002KT 01/M01 A3032 RMK A01 T00111010  RH  086%=      5-min Rain = 0
KES1 071928Z 07002KT 01/M01 A3032 RMK A01 T00111009  RH  086%=      5-min Rain = 0
KES1 071929Z 06002KT 01/M01 A3032 RMK A01 T00111012  RH  085%=      5-min Rain = 0
KES1 071930Z 04003KT 01/M01 A3032 RMK A01 T00111009  RH  086%=      5-min Rain = 0
KES1 071931Z 05003KT 01/M01 A3032 RMK A01 T00111010  RH  086%=      5-min Rain = 0
KES1 071932Z 05003KT 01/M01 A3032 RMK A01 T00111011  RH  085%=      5-min Rain = 0
KES1 071933Z 06003KT 01/M01 A3032 RMK A01 T00111010  RH  086%=      5-min Rain = 0
KES1 071934Z 05003KT 01/M01 A3032 RMK A01 T00111010  RH  086%=      5-min Rain = 0
KES1 071935Z 04003KT 01/M01 A3032 RMK A01 T00121009  RH  086%=      5-min Rain = 0
KES1 071936Z 04003KT 01/M01 A3031 RMK A01 T00121008  RH  086%=      5-min Rain = 0
KES1 071937Z 04002KT 01/M01 A3031 RMK A01 T00131007  RH  087%=      5-min Rain = 0
KES1 071938Z 05002KT 01/M01 A3031 RMK A01 T00131009  RH  086%=      5-min Rain = 0
KES1 071939Z 06001KT 01/M01 A3031 RMK A01 T00131011  RH  084%=      5-min Rain = 0
KES1 071940Z 06001KT 01/M01 A3032 RMK A01 T00121012  RH  084%=      5-min Rain = 0
KES1 071941Z 08001KT 01/M01 A3032 RMK A01 T00131009  RH  085%=      5-min Rain = 0
KES1 071942Z 02001KT 01/M01 A3032 RMK A01 T00131009  RH  085%=      5-min Rain = 0
KES1 071943Z 35002KT 01/M01 A3032 RMK A01 T00131012  RH  084%=      5-min Rain = 0
KES1 071944Z 02001KT 01/M01 A3032 RMK A01 T00131012  RH  084%=      5-min Rain = 0
KES1 071945Z 05001KT 01/M01 A3032 RMK A01 T00131010  RH  085%=      5-min Rain = 0
KES1 071946Z 36002KT 01/M01 A3032 RMK A01 T00131008  RH  086%=      5-min Rain = 0
KES1 071947Z 01003KT 01/M01 A3032 RMK A01 T00141013  RH  083%=      5-min Rain = 0
KES1 071948Z 02001KT 01/M01 A3032 RMK A01 T00131014  RH  082%=      5-min Rain = 0
KES1 071949Z 02001KT 01/M01 A3032 RMK A01 T00131013  RH  083%=      5-min Rain = 0
KES1 071950Z 01004KT 01/M01 A3032 RMK A01 T00131011  RH  084%=      5-min Rain = 0
KES1 071951Z 36003KT 01/M01 A3032 RMK A01 T00131013  RH  083%=      5-min Rain = 0
KES1 071952Z 00003KT 01/M02 A3032 RMK A01 T00131016  RH  081%=      5-min Rain = 0
KES1 071953Z 02003KT 01/M02 A3032 RMK A01 T00131017  RH  081%=      5-min Rain = 0
KES1 071954Z 01003KT 01/M02 A3032 RMK A01 T00131015  RH  082%=      5-min Rain = 0
KES1 071955Z 01003KT 01/M02 A3032 RMK A01 T00131015  RH  082%=      5-min Rain = 0
KES1 071956Z 36002KT 01/M02 A3032 RMK A01 T00131016  RH  081%=      5-min Rain = 0
KES1 071957Z 02002KT 01/M02 A3032 RMK A01 T00131015  RH  082%=      5-min Rain = 0
KES1 071958Z 02002KT 01/M02 A3032 RMK A01 T00131015  RH  082%=      5-min Rain = 0
KES1 071959Z 35003KT 01/M02 A3032 RMK A01 T00131015  RH  082%=      5-min Rain = 0
KES1 072000Z 35003KT 01/M02 A3032 RMK A01 T00131016  RH  081%=      5-min Rain = 0
KES1 072001Z 34004KT 01/M01 A3032 RMK A01 T00131014  RH  082%=      5-min Rain = 0
KES1 072002Z 34005KT 01/M01 A3032 RMK A01 T00131014  RH  082%=      5-min Rain = 0
KES1 072003Z 34004KT 01/M02 A3032 RMK A01 T00131016  RH  081%=      5-min Rain = 0
KES1 072004Z 34004KT 01/M02 A3032 RMK A01 T00141016  RH  081%=      5-min Rain = 0
KES1 072005Z 33005KT 01/M02 A3032 RMK A01 T00141015  RH  081%=      5-min Rain = 0
KES1 072006Z 32005KT 01/M02 A3032 RMK A01 T00141017  RH  080%=      5-min Rain = 0
KES1 072007Z 33004KT 01/M02 A3032 RMK A01 T00131016  RH  081%=      5-min Rain = 0
KES1 072008Z 32004KT 01/M02 A3032 RMK A01 T00131018  RH  080%=      5-min Rain = 0
KES1 072009Z 33003KT 01/M02 A3032 RMK A01 T00131018  RH  080%=      5-min Rain = 0
KES1 072010Z 34003KT 01/M02 A3032 RMK A01 T00131015  RH  082%=      5-min Rain = 0
KES1 072011Z 33004KT 01/M01 A3032 RMK A01 T00131012  RH  083%=      5-min Rain = 0
KES1 072012Z 33005KT 01/M01 A3032 RMK A01 T00141011  RH  083%=      5-min Rain = 0.01
KES1 072013Z 33005KT 01/M02 A3032 RMK A01 T00141015  RH  081%=      5-min Rain = 0
KES1 072014Z 34003KT 01/M02 A3032 RMK A01 T00141017  RH  080%=      5-min Rain = 0
KES1 072015Z 35004KT 01/M01 A3031 RMK A01 T00141014  RH  082%=      5-min Rain = 0
KES1 072016Z 35003KT 01/M01 A3031 RMK A01 T00141014  RH  081%=      5-min Rain = 0
KES1 072017Z 00004KT 01/M02 A3031 RMK A01 T00141015  RH  081%=      5-min Rain = 0
KES1 072018Z 01003KT 01/M02 A3031 RMK A01 T00141016  RH  081%=      5-min Rain = 0
KES1 072019Z 01003KT 01/M02 A3031 RMK A01 T00141015  RH  081%=      5-min Rain = 0
KES1 072020Z 01003KT 01/M02 A3031 RMK A01 T00141015  RH  081%=      5-min Rain = 0
KES1 072021Z 02003KT 01/M01 A3031 RMK A01 T00141014  RH  082%=      5-min Rain = 0
KES1 072022Z 02002KT 01/M01 A3031 RMK A01 T00141013  RH  082%=      5-min Rain = 0
KES1 072023Z 35003KT 01/M01 A3031 RMK A01 T00141014  RH  082%=      5-min Rain = 0
KES1 072024Z 35003KT 01/M01 A3031 RMK A01 T00141014  RH  082%=      5-min Rain = 0
KES1 072025Z 02003KT 01/M02 A3031 RMK A01 T00141015  RH  081%=      5-min Rain = 0
KES1 072026Z 36002KT 01/M01 A3031 RMK A01 T00141014  RH  081%=      5-min Rain = 0
KES1 072027Z 34002KT 01/M01 A3031 RMK A01 T00141013  RH  082%=      5-min Rain = 0
KES1 072028Z 35003KT 01/M01 A3031 RMK A01 T00141012  RH  083%=      5-min Rain = 0
KES1 072029Z 00002KT 02/M01 A3031 RMK A01 T00151009  RH  084%=      5-min Rain = 0
KES1 072030Z 00002KT 02/M01 A3031 RMK A01 T00161010  RH  083%=      5-min Rain = 0
KES1 072031Z 33003KT 02/M01 A3031 RMK A01 T00161010  RH  083%=      5-min Rain = 0
KES1 072032Z 34004KT 02/M01 A3031 RMK A01 T00161012  RH  082%=      5-min Rain = 0
KES1 072033Z 34003KT 02/M01 A3031 RMK A01 T00161014  RH  081%=      5-min Rain = 0
KES1 072034Z 33003KT 02/M01 A3031 RMK A01 T00161013  RH  081%=      5-min Rain = 0
KES1 072035Z 33003KT 02/M01 A3031 RMK A01 T00161012  RH  081%=      5-min Rain = 0
KES1 072036Z 34004KT 02/M01 A3031 RMK A01 T00161012  RH  082%=      5-min Rain = 0
KES1 072037Z 33005KT 02/M01 A3031 RMK A01 T00161012  RH  082%=      5-min Rain = 0
KES1 072038Z 33005KT 02/M01 A3031 RMK A01 T00161014  RH  080%=      5-min Rain = 0
KES1 072039Z 34005KT 02/M01 A3032 RMK A01 T00161013  RH  081%=      5-min Rain = 0
KES1 072040Z 33004KT 02/M01 A3032 RMK A01 T00161014  RH  080%=      5-min Rain = 0
KES1 072041Z 33003KT 02/M01 A3032 RMK A01 T00161014  RH  080%=      5-min Rain = 0
KES1 072042Z 34004KT 02/M01 A3032 RMK A01 T00161013  RH  081%=      5-min Rain = 0
KES1 072043Z 34005KT 02/M01 A3032 RMK A01 T00161014  RH  080%=      5-min Rain = 0
KES1 072044Z 35003KT 02/M01 A3032 RMK A01 T00161014  RH  080%=      5-min Rain = 0
KES1 072045Z 33004KT 02/M01 A3032 RMK A01 T00161013  RH  081%=      5-min Rain = 0
KES1 072046Z 34004KT 02/M01 A3032 RMK A01 T00171013  RH  081%=      5-min Rain = 0
KES1 072047Z 33004KT 02/M02 A3032 RMK A01 T00171015  RH  079%=      5-min Rain = 0
KES1 072048Z 33004KT 02/M01 A3032 RMK A01 T00171014  RH  080%=      5-min Rain = 0
KES1 072049Z 32003KT 02/M01 A3032 RMK A01 T00171014  RH  080%=      5-min Rain = 0
KES1 072050Z 33004KT 02/M01 A3032 RMK A01 T00171012  RH  081%=      5-min Rain = 0
KES1 072051Z 33003KT 02/M01 A3032 RMK A01 T00171013  RH  080%=      5-min Rain = 0
KES1 072052Z 33004KT 02/M01 A3032 RMK A01 T00171011  RH  082%=      5-min Rain = 0
KES1 072053Z 34004KT 02/M01 A3032 RMK A01 T00181011  RH  081%=      5-min Rain = 0
KES1 072054Z 34004KT 02/M01 A3032 RMK A01 T00181012  RH  081%=      5-min Rain = 0
KES1 072055Z 34003KT 02/M01 A3032 RMK A01 T00181014  RH  080%=      5-min Rain = 0
KES1 072056Z 35003KT 02/M01 A3032 RMK A01 T00181014  RH  080%=      5-min Rain = 0
KES1 072057Z 35003KT 02/M01 A3032 RMK A01 T00181013  RH  080%=      5-min Rain = 0
KES1 072058Z 35003KT 02/M01 A3032 RMK A01 T00181012  RH  080%=      5-min Rain = 0
KES1 072059Z 34003KT 02/M01 A3032 RMK A01 T00171011  RH  082%=      5-min Rain = 0
KES1 072100Z 33003KT 02/M01 A3032 RMK A01 T00181012  RH  081%=      5-min Rain = 0
KES1 072101Z 34004KT 02/M01 A3032 RMK A01 T00181011  RH  081%=      5-min Rain = 0
KES1 072102Z 33004KT 02/M01 A3032 RMK A01 T00181011  RH  081%=      5-min Rain = 0
KES1 072103Z 34004KT 02/M01 A3032 RMK A01 T00181012  RH  080%=      5-min Rain = 0
KES1 072104Z 34004KT 02/M01 A3032 RMK A01 T00181011  RH  081%=      5-min Rain = 0
KES1 072105Z 35004KT 02/M01 A3032 RMK A01 T00181013  RH  080%=      5-min Rain = 0
KES1 072106Z 35004KT 02/M01 A3032 RMK A01 T00181013  RH  080%=      5-min Rain = 0
KES1 072107Z 35004KT 02/M01 A3032 RMK A01 T00181013  RH  080%=      5-min Rain = 0
KES1 072108Z 33003KT 02/M01 A3031 RMK A01 T00181013  RH  080%=      5-min Rain = 0
KES1 072109Z 35003KT 02/M01 A3031 RMK A01 T00181009  RH  082%=      5-min Rain = 0
KES1 072110Z 34003KT 02/M01 A3031 RMK A01 T00181009  RH  082%=      5-min Rain = 0
KES1 072111Z 34004KT 02/M01 A3031 RMK A01 T00181010  RH  082%=      5-min Rain = 0
KES1 072112Z 35004KT 02/M01 A3031 RMK A01 T00181010  RH  082%=      5-min Rain = 0
KES1 072113Z 36004KT 02/M01 A3031 RMK A01 T00181008  RH  083%=      5-min Rain = 0
KES1 072114Z 35005KT 02/M01 A3031 RMK A01 T00181009  RH  082%=      5-min Rain = 0
KES1 072115Z 34005KT 02/M01 A3031 RMK A01 T00181011  RH  081%=      5-min Rain = 0
KES1 072116Z 34004KT 02/M01 A3031 RMK A01 T00181013  RH  080%=      5-min Rain = 0
KES1 072117Z 35004KT 02/M01 A3031 RMK A01 T00181010  RH  082%=      5-min Rain = 0
KES1 072118Z 34004KT 02/M01 A303 RMK A01 T00181012  RH  081%=      5-min Rain = 0
KES1 072119Z 35004KT 02/M01 A303 RMK A01 T00181012  RH  080%=      5-min Rain = 0
KES1 072120Z 34004KT 02/M01 A303 RMK A01 T00181011  RH  081%=      5-min Rain = 0
KES1 072121Z 34005KT 02/M01 A303 RMK A01 T00181009  RH  082%=      5-min Rain = 0
KES1 072122Z 33004KT 02/M01 A3031 RMK A01 T00181012  RH  081%=      5-min Rain = 0
KES1 072123Z 33004KT 02/M01 A3031 RMK A01 T00181011  RH  081%=      5-min Rain = 0
KES1 072124Z 33003KT 02/M01 A3031 RMK A01 T00181009  RH  082%=      5-min Rain = 0
KES1 072125Z 33004KT 02/M01 A3031 RMK A01 T00181007  RH  083%=      5-min Rain = 0
KES1 072126Z 33004KT 02/M01 A3031 RMK A01 T00181006  RH  084%=      5-min Rain = 0
KES1 072127Z 33004KT 02/M01 A3031 RMK A01 T00181009  RH  082%=      5-min Rain = 0
KES1 072128Z 34005KT 02/M01 A3031 RMK A01 T00181010  RH  082%=      5-min Rain = 0
KES1 072129Z 33004KT 02/M01 A3031 RMK A01 T00181009  RH  083%=      5-min Rain = 0
KES1 072130Z 33005KT 02/M01 A3031 RMK A01 T00181009  RH  083%=      5-min Rain = 0
KES1 072131Z 34005KT 02/M01 A3031 RMK A01 T00181009  RH  082%=      5-min Rain = 0
KES1 072132Z 33005KT 02/M01 A3031 RMK A01 T00181010  RH  082%=      5-min Rain = 0
KES1 072133Z 33004KT 02/M01 A3031 RMK A01 T00181012  RH  081%=      5-min Rain = 0
KES1 072134Z 33004KT 02/M01 A3031 RMK A01 T00171010  RH  082%=      5-min Rain = 0
KES1 072135Z 33004KT 02/M01 A3031 RMK A01 T00171010  RH  082%=      5-min Rain = 0
KES1 072136Z 33004KT 02/M01 A3031 RMK A01 T00171008  RH  083%=      5-min Rain = 0
KES1 072137Z 33004KT 02/M01 A3031 RMK A01 T00171007  RH  084%=      5-min Rain = 0
KES1 072138Z 33004KT 02/M01 A3031 RMK A01 T00171007  RH  084%=      5-min Rain = 0
KES1 072139Z 33003KT 02/M01 A3031 RMK A01 T00171007  RH  084%=      5-min Rain = 0
KES1 072140Z 33003KT 02/M01 A3031 RMK A01 T00171007  RH  084%=      5-min Rain = 0
KES1 072141Z 34003KT 02/M01 A303 RMK A01 T00171006  RH  084%=      5-min Rain = 0
KES1 072142Z 34003KT 02/M01 A303 RMK A01 T00171007  RH  084%=      5-min Rain = 0
KES1 072143Z 35003KT 02/M01 A303 RMK A01 T00171007  RH  084%=      5-min Rain = 0
KES1 072144Z 34003KT 02/M01 A303 RMK A01 T00171007  RH  084%=      5-min Rain = 0
KES1 072145Z 34004KT 02/M01 A303 RMK A01 T00181006  RH  084%=      5-min Rain = 0
KES1 072146Z 33004KT 02/M01 A303 RMK A01 T00181007  RH  084%=      5-min Rain = 0
KES1 072147Z 33004KT 02/M01 A303 RMK A01 T00181007  RH  084%=      5-min Rain = 0
KES1 072148Z 34004KT 02/M01 A303 RMK A01 T00181006  RH  084%=      5-min Rain = 0
KES1 072149Z 34005KT 02/M01 A303 RMK A01 T00171007  RH  084%=      5-min Rain = 0
KES1 072150Z 33005KT 02/M01 A303 RMK A01 T00181007  RH  084%=      5-min Rain = 0
KES1 072151Z 33004KT 02/M01 A303 RMK A01 T00181006  RH  084%=      5-min Rain = 0
KES1 072152Z 33005KT 02/M01 A303 RMK A01 T00181005  RH  085%=      5-min Rain = 0
KES1 072153Z 33005KT 02/M01 A303 RMK A01 T00181005  RH  085%=      5-min Rain = 0
KES1 072154Z 34005KT 02/M01 A303 RMK A01 T00181005  RH  085%=      5-min Rain = 0
KES1 072155Z 34006KT 02/M01 A303 RMK A01 T00181005  RH  085%=      5-min Rain = 0
KES1 072156Z 33006KT 02/M01 A303 RMK A01 T00181005  RH  085%=      5-min Rain = 0
KES1 072157Z 33006KT 02/M01 A3031 RMK A01 T00181006  RH  085%=      5-min Rain = 0
KES1 072158Z 34006KT 02/M01 A3031 RMK A01 T00171005  RH  085%=      5-min Rain = 0
KES1 072159Z 33006KT 02/M01 A3031 RMK A01 T00181005  RH  085%=      5-min Rain = 0
KES1 072200Z 33007KT 02/M01 A3031 RMK A01 T00181005  RH  085%=      5-min Rain = 0
KES1 072201Z 33006KT 02/M01 A3031 RMK A01 T00181005  RH  085%=      5-min Rain = 0
KES1 072202Z 33006KT 02/M01 A3031 RMK A01 T00181005  RH  085%=      5-min Rain = 0
KES1 072203Z 33006KT 02/M01 A3031 RMK A01 T00181005  RH  085%=      5-min Rain = 0
KES1 072204Z 33006KT 02/M01 A3031 RMK A01 T00181006  RH  085%=      5-min Rain = 0
KES1 072205Z 34006KT 02/M00 A3031 RMK A01 T00181004  RH  085%=      5-min Rain = 0
KES1 072206Z 33005KT 02/M00 A3031 RMK A01 T00181004  RH  085%=      5-min Rain = 0
KES1 072207Z 34005KT 02/M00 A3031 RMK A01 T00181004  RH  085%=      5-min Rain = 0
KES1 072208Z 34004KT 02/M00 A3031 RMK A01 T00181004  RH  086%=      5-min Rain = 0
KES1 072209Z 34003KT 02/M00 A3031 RMK A01 T00181002  RH  087%=      5-min Rain = 0
KES1 072210Z 35004KT 02/M00 A3031 RMK A01 T00181001  RH  087%=      5-min Rain = 0
KES1 072211Z 35004KT 02/M00 A3031 RMK A01 T00181003  RH  086%=      5-min Rain = 0
KES1 072212Z 35004KT 02/M01 A3031 RMK A01 T00181005  RH  085%=      5-min Rain = 0
KES1 072213Z 35005KT 02/M00 A3031 RMK A01 T00181004  RH  085%=      5-min Rain = 0
KES1 072214Z 35004KT 02/M01 A3031 RMK A01 T00181005  RH  085%=      5-min Rain = 0
KES1 072215Z 01004KT 02/M00 A3032 RMK A01 T00181004  RH  085%=      5-min Rain = 0
KES1 072216Z 01005KT 02/M00 A3032 RMK A01 T00181004  RH  086%=      5-min Rain = 0
KES1 072217Z 02005KT 02/M00 A3032 RMK A01 T00181004  RH  085%=      5-min Rain = 0
KES1 072218Z 02005KT 02/M00 A3032 RMK A01 T00181004  RH  085%=      5-min Rain = 0
KES1 072219Z 02005KT 02/M00 A3032 RMK A01 T00181004  RH  085%=      5-min Rain = 0
KES1 072220Z 02005KT 02/M01 A3032 RMK A01 T00181005  RH  085%=      5-min Rain = 0
KES1 072221Z 02005KT 02/M01 A3032 RMK A01 T00181005  RH  084%=      5-min Rain = 0
KES1 072222Z 02006KT 02/M01 A3032 RMK A01 T00181007  RH  084%=      5-min Rain = 0
KES1 072223Z 02005KT 02/M01 A3032 RMK A01 T00181008  RH  083%=      5-min Rain = 0
KES1 072224Z 02004KT 02/M01 A3032 RMK A01 T00181006  RH  084%=      5-min Rain = 0
KES1 072225Z 02004KT 02/M01 A3032 RMK A01 T00181005  RH  085%=      5-min Rain = 0
KES1 072226Z 02004KT 02/M01 A3032 RMK A01 T00181005  RH  085%=      5-min Rain = 0
KES1 072227Z 03004KT 02/M01 A3032 RMK A01 T00181005  RH  084%=      5-min Rain = 0
KES1 072228Z 04005KT 02/M01 A3032 RMK A01 T00181005  RH  085%=      5-min Rain = 0
KES1 072229Z 03006KT 02/M01 A3032 RMK A01 T00181005  RH  084%=      5-min Rain = 0
KES1 072230Z 03007KT 02/M01 A3032 RMK A01 T00181006  RH  084%=      5-min Rain = 0
KES1 072231Z 04005KT 02/M01 A3032 RMK A01 T00181008  RH  083%=      5-min Rain = 0
KES1 072232Z 04006KT 02/M01 A3031 RMK A01 T00181008  RH  083%=      5-min Rain = 0
KES1 072233Z 05006KT 02/M01 A3031 RMK A01 T00181007  RH  084%=      5-min Rain = 0
KES1 072234Z 04005KT 02/M01 A3031 RMK A01 T00181006  RH  084%=      5-min Rain = 0
KES1 072235Z 05005KT 02/M01 A3031 RMK A01 T00181006  RH  084%=      5-min Rain = 0
KES1 072236Z 05006KT 02/M01 A3031 RMK A01 T00181005  RH  085%=      5-min Rain = 0
KES1 072237Z 05007KT 02/M01 A3031 RMK A01 T00181006  RH  085%=      5-min Rain = 0
KES1 072238Z 05007KT 02/M01 A3031 RMK A01 T00181006  RH  085%=      5-min Rain = 0
KES1 072239Z 05006KT 02/M01 A3031 RMK A01 T00181006  RH  084%=      5-min Rain = 0
KES1 072240Z 05006KT 02/M01 A3031 RMK A01 T00181005  RH  085%=      5-min Rain = 0
KES1 072241Z 05006KT 02/M01 A3031 RMK A01 T00171006  RH  085%=      5-min Rain = 0
KES1 072242Z 04006KT 02/M01 A3031 RMK A01 T00171006  RH  085%=      5-min Rain = 0
KES1 072243Z 05006KT 02/M01 A3031 RMK A01 T00171005  RH  085%=      5-min Rain = 0
KES1 072244Z 04006KT 02/M00 A3031 RMK A01 T00171004  RH  086%=      5-min Rain = 0
KES1 072245Z 05006KT 02/M00 A3031 RMK A01 T00171004  RH  086%=      5-min Rain = 0
KES1 072246Z 04005KT 02/M00 A3031 RMK A01 T00171004  RH  086%=      5-min Rain = 0
KES1 072247Z 05006KT 02/M00 A3031 RMK A01 T00171004  RH  086%=      5-min Rain = 0
KES1 072248Z 05005KT 02/M00 A3031 RMK A01 T00171004  RH  086%=      5-min Rain = 0
KES1 072249Z 05006KT 02/M00 A3031 RMK A01 T00171004  RH  086%=      5-min Rain = 0
KES1 072250Z 05005KT 02/M00 A3032 RMK A01 T00171004  RH  086%=      5-min Rain = 0
KES1 072251Z 05005KT 02/M00 A3032 RMK A01 T00171004  RH  086%=      5-min Rain = 0
KES1 072252Z 05005KT 02/M00 A3031 RMK A01 T00171003  RH  086%=      5-min Rain = 0
KES1 072253Z 04005KT 02/M00 A3031 RMK A01 T00171002  RH  087%=      5-min Rain = 0
KES1 072254Z 04005KT 02/M00 A3031 RMK A01 T00171003  RH  087%=      5-min Rain = 0
KES1 072255Z 04006KT 02/M00 A3031 RMK A01 T00171003  RH  087%=      5-min Rain = 0
KES1 072256Z 04006KT 02/M00 A3031 RMK A01 T00171003  RH  086%=      5-min Rain = 0
KES1 072257Z 04006KT 02/M00 A3031 RMK A01 T00171004  RH  086%=      5-min Rain = 0
KES1 072258Z 05008KT 02/M01 A3031 RMK A01 T00171005  RH  086%=      5-min Rain = 0
KES1 072259Z 05007KT 02/M01 A3031 RMK A01 T00171006  RH  085%=      5-min Rain = 0
KES1 072300Z 04006KT 02/M01 A3031 RMK A01 T00171005  RH  085%=      5-min Rain = 0
KES1 072301Z 05007KT 02/M01 A3031 RMK A01 T00171005  RH  086%=      5-min Rain = 0
KES1 072302Z 05006KT 02/M00 A3031 RMK A01 T00171004  RH  086%=      5-min Rain = 0
KES1 072303Z 05006KT 02/M01 A3031 RMK A01 T00171005  RH  086%=      5-min Rain = 0
KES1 072304Z 05006KT 02/M00 A303 RMK A01 T00161004  RH  086%=      5-min Rain = 0
KES1 072305Z 05006KT 02/M00 A303 RMK A01 T00161004  RH  087%=      5-min Rain = 0
KES1 072306Z 04007KT 02/M00 A303 RMK A01 T00161003  RH  087%=      5-min Rain = 0
KES1 072307Z 04007KT 02/M00 A303 RMK A01 T00161004  RH  087%=      5-min Rain = 0
KES1 072308Z 04008KT 02/M00 A303 RMK A01 T00161004  RH  086%=      5-min Rain = 0
KES1 072309Z 05007KT 02/M00 A3031 RMK A01 T00161004  RH  086%=      5-min Rain = 0
KES1 072310Z 04006KT 02/M00 A3031 RMK A01 T00161004  RH  087%=      5-min Rain = 0
KES1 072311Z 05007KT 02/M00 A3031 RMK A01 T00161004  RH  087%=      5-min Rain = 0
KES1 072312Z 05006KT 02/M00 A3031 RMK A01 T00161004  RH  087%=      5-min Rain = 0
KES1 072313Z 05008KT 02/M00 A303 RMK A01 T00161004  RH  087%=      5-min Rain = 0
KES1 072314Z 05008KT 02/M00 A303 RMK A01 T00151004  RH  087%=      5-min Rain = 0
KES1 072315Z 05008KT 02/M00 A303 RMK A01 T00151004  RH  087%=      5-min Rain = 0
KES1 072316Z 04006KT 02/M00 A3031 RMK A01 T00151004  RH  087%=      5-min Rain = 0
KES1 072317Z 05008KT 02/M00 A3031 RMK A01 T00151003  RH  088%=      5-min Rain = 0
KES1 072318Z 05007KT 02/M00 A3031 RMK A01 T00151003  RH  088%=      5-min Rain = 0
KES1 072319Z 04006KT 02/M00 A3031 RMK A01 T00151003  RH  088%=      5-min Rain = 0
KES1 072320Z 04006KT 02/M00 A3031 RMK A01 T00151002  RH  088%=      5-min Rain = 0
KES1 072321Z 03007KT 02/M00 A3031 RMK A01 T00151001  RH  089%=      5-min Rain = 0
KES1 072322Z 04009KT 02/M00 A3031 RMK A01 T00151003  RH  088%=      5-min Rain = 0
KES1 072323Z 04009KT 02/M00 A3031 RMK A01 T00151004  RH  087%=      5-min Rain = 0
KES1 072324Z 03006KT 02/M00 A3031 RMK A01 T00151004  RH  087%=      5-min Rain = 0
KES1 072325Z 04008KT 02/M00 A3031 RMK A01 T00151003  RH  088%=      5-min Rain = 0
KES1 072326Z 04007KT 01/M00 A3031 RMK A01 T00141003  RH  088%=      5-min Rain = 0
KES1 072327Z 04007KT 01/M00 A3032 RMK A01 T00141003  RH  088%=      5-min Rain = 0
KES1 072328Z 04008KT 01/M00 A3032 RMK A01 T00141004  RH  088%=      5-min Rain = 0
KES1 072329Z 04008KT 01/M00 A3032 RMK A01 T00141003  RH  088%=      5-min Rain = 0
KES1 072330Z 04007KT 01/M00 A3032 RMK A01 T00131003  RH  089%=      5-min Rain = 0
KES1 072331Z 04005KT 01/M00 A3032 RMK A01 T00141002  RH  089%=      5-min Rain = 0
KES1 072332Z 03005KT 01/M00 A3032 RMK A01 T00131002  RH  090%=      5-min Rain = 0
KES1 072333Z 04005KT 01/M00 A3032 RMK A01 T00131002  RH  090%=      5-min Rain = 0
KES1 072334Z 03006KT 01/M00 A3032 RMK A01 T00131001  RH  090%=      5-min Rain = 0
KES1 072335Z 03008KT 01/M00 A3032 RMK A01 T00131001  RH  091%=      5-min Rain = 0
KES1 072336Z 03007KT 01/M00 A3032 RMK A01 T00121002  RH  090%=      5-min Rain = 0
KES1 072337Z 05006KT 01/M00 A3032 RMK A01 T00121002  RH  090%=      5-min Rain = 0
KES1 072338Z 05006KT 01/M00 A3032 RMK A01 T00121002  RH  091%=      5-min Rain = 0
KES1 072339Z 04005KT 01/M00 A3032 RMK A01 T00121001  RH  091%=      5-min Rain = 0
KES1 072340Z 05008KT 01/M00 A3032 RMK A01 T00121001  RH  091%=      5-min Rain = 0
KES1 072341Z 05006KT 01/M00 A3032 RMK A01 T00121001  RH  091%=      5-min Rain = 0
KES1 072342Z 05008KT 01/M00 A3032 RMK A01 T00121001  RH  091%=      5-min Rain = 0
KES1 072343Z 06008KT 01/M00 A3032 RMK A01 T00111001  RH  091%=      5-min Rain = 0
KES1 072344Z 05009KT 01/M00 A3031 RMK A01 T00111002  RH  091%=      5-min Rain = 0
KES1 072345Z 05008KT 01/M00 A3031 RMK A01 T00111002  RH  091%=      5-min Rain = 0
KES1 072346Z 05008KT 01/M00 A3031 RMK A01 T00111002  RH  091%=      5-min Rain = 0
KES1 072347Z 06008KT 01/M00 A3031 RMK A01 T00111002  RH  091%=      5-min Rain = 0
KES1 072348Z 05008KT 01/M00 A3031 RMK A01 T00111001  RH  092%=      5-min Rain = 0
KES1 072349Z 05007KT 01/M00 A3031 RMK A01 T00101002  RH  092%=      5-min Rain = 0
KES1 072350Z 05007KT 01/M00 A3032 RMK A01 T00101001  RH  092%=      5-min Rain = 0
KES1 072351Z 05008KT 01/M00 A3032 RMK A01 T00101001  RH  092%=      5-min Rain = 0
KES1 072352Z 05008KT 01/00 A3032 RMK A01 T001000-0  RH  093%=      5-min Rain = 0
KES1 072353Z 05008KT 01/00 A3032 RMK A01 T001000-0  RH  093%=      5-min Rain = 0
KES1 072354Z 05006KT 01/00 A3032 RMK A01 T001000-0  RH  093%=      5-min Rain = 0
KES1 072355Z 05007KT 01/00 A3032 RMK A01 T00100000  RH  093%=      5-min Rain = 0
KES1 072356Z 05006KT 01/00 A3032 RMK A01 T00100000  RH  093%=      5-min Rain = 0
KES1 072357Z 05006KT 01/00 A3032 RMK A01 T00100001  RH  093%=      5-min Rain = 0
KES1 072358Z 05005KT 01/00 A3032 RMK A01 T00100000  RH  093%=      5-min Rain = 0
KES1 072359Z 05007KT 01/00 A3032 RMK A01 T00110001  RH  094%=      5-min Rain = 0
KES1 080000Z 05006KT 01/00 A3032 RMK A01 T00100001  RH  093%=      5-min Rain = 0
KES1 080001Z 05005KT 01/00 A3032 RMK A01 T00100001  RH  093%=      5-min Rain = 0
KES1 080002Z 05006KT 01/00 A3032 RMK A01 T00100001  RH  094%=      5-min Rain = 0
KES1 080003Z 05005KT 01/00 A3032 RMK A01 T00100001  RH  094%=      5-min Rain = 0
KES1 080004Z 05006KT 01/00 A3032 RMK A01 T00100001  RH  094%=      5-min Rain = 0
KES1 080005Z 05007KT 01/00 A3032 RMK A01 T00100001  RH  094%=      5-min Rain = 0
KES1 080006Z 05006KT 01/00 A3032 RMK A01 T00100000  RH  093%=      5-min Rain = 0
KES1 080007Z 04006KT 01/00 A3033 RMK A01 T00100000  RH  093%=      5-min Rain = 0
KES1 080008Z 05005KT 01/00 A3033 RMK A01 T00100000  RH  093%=      5-min Rain = 0
KES1 080009Z 05005KT 01/00 A3033 RMK A01 T00100001  RH  093%=      5-min Rain = 0
KES1 080010Z 04004KT 01/00 A3033 RMK A01 T00100001  RH  094%=      5-min Rain = 0
KES1 080011Z 05005KT 01/00 A3033 RMK A01 T00100001  RH  094%=      5-min Rain = 0
KES1 080012Z 05006KT 01/00 A3033 RMK A01 T00100001  RH  094%=      5-min Rain = 0
KES1 080013Z 05005KT 01/00 A3033 RMK A01 T00100001  RH  094%=      5-min Rain = 0
KES1 080014Z 05005KT 01/00 A3033 RMK A01 T00100001  RH  094%=      5-min Rain = 0
KES1 080015Z 05004KT 01/00 A3032 RMK A01 T00100001  RH  094%=      5-min Rain = 0
KES1 080016Z 05005KT 01/00 A3032 RMK A01 T00100001  RH  094%=      5-min Rain = 0
KES1 080017Z 05006KT 01/00 A3032 RMK A01 T00100001  RH  094%=      5-min Rain = 0
KES1 080018Z 05006KT 01/00 A3032 RMK A01 T00100002  RH  094%=      5-min Rain = 0
KES1 080019Z 05006KT 01/00 A3032 RMK A01 T00100001  RH  094%=      5-min Rain = 0
KES1 080020Z 05006KT 01/00 A3032 RMK A01 T00090001  RH  094%=      5-min Rain = 0
KES1 080021Z 06006KT 01/00 A3032 RMK A01 T00090001  RH  094%=      5-min Rain = 0
KES1 080022Z 05006KT 01/00 A3032 RMK A01 T00090001  RH  094%=      5-min Rain = 0
KES1 080023Z 05006KT 01/00 A3032 RMK A01 T00090000  RH  094%=      5-min Rain = 0
KES1 080024Z 05007KT 01/00 A3032 RMK A01 T00100001  RH  094%=      5-min Rain = 0
KES1 080025Z 05006KT 01/00 A3032 RMK A01 T00090001  RH  094%=      5-min Rain = 0
KES1 080026Z 05007KT 01/00 A3032 RMK A01 T00090000  RH  094%=      5-min Rain = 0
KES1 080027Z 05008KT 01/00 A3032 RMK A01 T001000-0  RH  093%=      5-min Rain = 0
KES1 080028Z 05008KT 01/00 A3032 RMK A01 T001000-0  RH  093%=      5-min Rain = 0
KES1 080029Z 05007KT 01/M00 A3032 RMK A01 T00091001  RH  093%=      5-min Rain = 0
KES1 080030Z 05006KT 01/00 A3032 RMK A01 T001000-0  RH  093%=      5-min Rain = 0
KES1 080031Z 06006KT 01/00 A3032 RMK A01 T000900-0  RH  093%=      5-min Rain = 0
KES1 080032Z 05007KT 01/00 A3032 RMK A01 T000900-0  RH  093%=      5-min Rain = 0
KES1 080033Z 06007KT 01/00 A3032 RMK A01 T000900-0  RH  094%=      5-min Rain = 0
KES1 080034Z 06005KT 01/00 A3032 RMK A01 T00090000  RH  094%=      5-min Rain = 0
KES1 080035Z 06006KT 01/00 A3032 RMK A01 T00090000  RH  094%=      5-min Rain = 0
KES1 080036Z 05006KT 01/00 A3032 RMK A01 T00090001  RH  094%=      5-min Rain = 0
KES1 080037Z 06005KT 01/00 A3032 RMK A01 T00090001  RH  094%=      5-min Rain = 0
KES1 080038Z 06006KT 01/00 A3032 RMK A01 T00090001  RH  094%=      5-min Rain = 0
KES1 080039Z 07008KT 01/00 A3032 RMK A01 T00090001  RH  094%=      5-min Rain = 0
KES1 080040Z 07008KT 01/00 A3032 RMK A01 T00090001  RH  094%=      5-min Rain = 0
KES1 080041Z 07007KT 01/00 A3032 RMK A01 T00090001  RH  094%=      5-min Rain = 0
KES1 080042Z 06007KT 01/00 A3033 RMK A01 T00090000  RH  094%=      5-min Rain = 0
KES1 080043Z 06007KT 01/00 A3033 RMK A01 T00080000  RH  094%=      5-min Rain = 0
KES1 080044Z 06006KT 01/00 A3032 RMK A01 T00080000  RH  095%=      5-min Rain = 0
KES1 080045Z 06007KT 01/00 A3032 RMK A01 T00080000  RH  095%=      5-min Rain = 0
KES1 080046Z 06007KT 01/00 A3032 RMK A01 T00080000  RH  095%=      5-min Rain = 0
KES1 080047Z 06005KT 01/00 A3032 RMK A01 T00080000  RH  095%=      5-min Rain = 0
KES1 080048Z 06008KT 01/00 A3032 RMK A01 T00080001  RH  095%=      5-min Rain = 0
KES1 080049Z 05007KT 01/00 A3032 RMK A01 T00080001  RH  095%=      5-min Rain = 0
KES1 080050Z 06009KT 01/00 A3032 RMK A01 T00080001  RH  095%=      5-min Rain = 0
KES1 080051Z 05009KT 01/00 A3032 RMK A01 T00080000  RH  095%=      5-min Rain = 0
KES1 080052Z 06009KT 01/00 A3032 RMK A01 T00080000  RH  095%=      5-min Rain = 0
KES1 080053Z 06008KT 01/00 A3032 RMK A01 T00080000  RH  094%=      5-min Rain = 0
KES1 080054Z 06007KT 01/00 A3032 RMK A01 T000800-0  RH  094%=      5-min Rain = 0
KES1 080055Z 06007KT 01/00 A3032 RMK A01 T000800-0  RH  094%=      5-min Rain = 0
KES1 080056Z 06008KT 01/00 A3032 RMK A01 T000800-0  RH  094%=      5-min Rain = 0
KES1 080057Z 05011KT 01/M00 A3032 RMK A01 T00081001  RH  094%=      5-min Rain = 0
KES1 080058Z 05009KT 01/M00 A3032 RMK A01 T00071003  RH  093%=      5-min Rain = 0
KES1 080059Z 06008KT 01/M00 A3032 RMK A01 T00081004  RH  092%=      5-min Rain = 0
KES1 080100Z 05008KT 01/M00 A3032 RMK A01 T00081004  RH  092%=      5-min Rain = 0
KES1 080101Z 05009KT 01/M01 A3032 RMK A01 T00071005  RH  092%=      5-min Rain = 0
KES1 080102Z 05007KT 01/M01 A3032 RMK A01 T00081005  RH  091%=      5-min Rain = 0
KES1 080103Z 05007KT 01/M01 A3032 RMK A01 T00081005  RH  091%=      5-min Rain = 0
KES1 080104Z 06008KT 01/M01 A3032 RMK A01 T00081005  RH  091%=      5-min Rain = 0
KES1 080105Z 06008KT 01/M01 A3032 RMK A01 T00071006  RH  091%=      5-min Rain = 0
KES1 080106Z 06008KT 01/M01 A3032 RMK A01 T00071007  RH  091%=      5-min Rain = 0
KES1 080107Z 05008KT 01/M01 A3032 RMK A01 T00071007  RH  090%=      5-min Rain = 0
KES1 080108Z 05010KT 01/M01 A3032 RMK A01 T00071007  RH  091%=      5-min Rain = 0
KES1 080109Z 05009KT 01/M01 A3032 RMK A01 T00071007  RH  090%=      5-min Rain = 0
KES1 080110Z 05009KT 01/M01 A3032 RMK A01 T00071008  RH  090%=      5-min Rain = 0
KES1 080111Z 05009KT 01/M01 A3032 RMK A01 T00071008  RH  090%=      5-min Rain = 0
KES1 080112Z 05010KT 01/M01 A3032 RMK A01 T00061009  RH  090%=      5-min Rain = 0
KES1 080113Z 05009KT 01/M01 A3032 RMK A01 T00061009  RH  089%=      5-min Rain = 0
KES1 080114Z 05008KT 01/M01 A3032 RMK A01 T00061009  RH  090%=      5-min Rain = 0
KES1 080115Z 05007KT 01/M01 A3032 RMK A01 T00061009  RH  090%=      5-min Rain = 0
KES1 080116Z 05007KT 01/M01 A3032 RMK A01 T00061008  RH  090%=      5-min Rain = 0
KES1 080117Z 06007KT 01/M01 A3032 RMK A01 T00061008  RH  090%=      5-min Rain = 0
KES1 080118Z 05007KT 01/M01 A3032 RMK A01 T00061007  RH  091%=      5-min Rain = 0
KES1 080119Z 06008KT 01/M01 A3032 RMK A01 T00061007  RH  091%=      5-min Rain = 0
KES1 080120Z 05007KT 01/M01 A3032 RMK A01 T00061007  RH  091%=      5-min Rain = 0
KES1 080121Z 05007KT 01/M01 A3032 RMK A01 T00061007  RH  091%=      5-min Rain = 0
KES1 080122Z 05008KT 01/M01 A3032 RMK A01 T00061006  RH  091%=      5-min Rain = 0
KES1 080123Z 05009KT 01/M01 A3032 RMK A01 T00061007  RH  091%=      5-min Rain = 0
KES1 080124Z 04008KT 01/M01 A3032 RMK A01 T00061007  RH  091%=      5-min Rain = 0
KES1 080125Z 05008KT 01/M01 A3032 RMK A01 T00061008  RH  091%=      5-min Rain = 0
KES1 080126Z 05010KT 01/M01 A3032 RMK A01 T00061009  RH  090%=      5-min Rain = 0
KES1 080127Z 05011KT 01/M01 A3032 RMK A01 T00051010  RH  090%=      5-min Rain = 0
KES1 080128Z 06009KT 01/M01 A3032 RMK A01 T00051011  RH  089%=      5-min Rain = 0
KES1 080129Z 06008KT 01/M01 A3032 RMK A01 T00051012  RH  089%=      5-min Rain = 0
KES1 080130Z 05009KT 01/M01 A3032 RMK A01 T00051012  RH  089%=      5-min Rain = 0
KES1 080131Z 05010KT 01/M01 A3032 RMK A01 T00051012  RH  089%=      5-min Rain = 0
KES1 080132Z 05009KT 01/M01 A3032 RMK A01 T00051012  RH  088%=      5-min Rain = 0
KES1 080133Z 05008KT 01/M01 A3032 RMK A01 T00051012  RH  088%=      5-min Rain = 0
KES1 080134Z 05008KT 01/M01 A3032 RMK A01 T00051012  RH  089%=      5-min Rain = 0
KES1 080135Z 06008KT 00/M01 A3032 RMK A01 T00041012  RH  089%=      5-min Rain = 0
KES1 080136Z 05007KT 01/M01 A3032 RMK A01 T00051012  RH  088%=      5-min Rain = 0
KES1 080137Z 05008KT 00/M01 A3033 RMK A01 T00041012  RH  089%=      5-min Rain = 0
KES1 080138Z 04006KT 00/M01 A3033 RMK A01 T00041012  RH  089%=      5-min Rain = 0
KES1 080139Z 05008KT 00/M01 A3033 RMK A01 T00041012  RH  089%=      5-min Rain = 0
KES1 080140Z 05009KT 00/M01 A3033 RMK A01 T00041012  RH  089%=      5-min Rain = 0
KES1 080141Z 05008KT 00/M01 A3033 RMK A01 T00041013  RH  088%=      5-min Rain = 0
KES1 080142Z 06009KT 00/M01 A3033 RMK A01 T00041013  RH  088%=      5-min Rain = 0
KES1 080143Z 06009KT 00/M01 A3033 RMK A01 T00041013  RH  088%=      5-min Rain = 0
KES1 080144Z 05007KT 00/M01 A3033 RMK A01 T00041014  RH  088%=      5-min Rain = 0
KES1 080145Z 06006KT 00/M01 A3033 RMK A01 T00041013  RH  088%=      5-min Rain = 0
KES1 080146Z 05006KT 00/M01 A3033 RMK A01 T00041012  RH  089%=      5-min Rain = 0
KES1 080147Z 05007KT 00/M01 A3033 RMK A01 T00041012  RH  089%=      5-min Rain = 0
KES1 080148Z 06007KT 00/M01 A3033 RMK A01 T00041012  RH  089%=      5-min Rain = 0
KES1 080149Z 06008KT 00/M01 A3033 RMK A01 T00041012  RH  089%=      5-min Rain = 0
KES1 080150Z 05007KT 00/M01 A3034 RMK A01 T00041013  RH  089%=      5-min Rain = 0
KES1 080151Z 05008KT 00/M01 A3034 RMK A01 T00041013  RH  089%=      5-min Rain = 0
KES1 080152Z 06007KT 00/M01 A3034 RMK A01 T00041013  RH  089%=      5-min Rain = 0
KES1 080153Z 05008KT 00/M01 A3034 RMK A01 T00041013  RH  089%=      5-min Rain = 0
KES1 080154Z 05007KT 00/M01 A3034 RMK A01 T00041013  RH  089%=      5-min Rain = 0
KES1 080155Z 05007KT 00/M01 A3034 RMK A01 T00041012  RH  089%=      5-min Rain = 0
KES1 080156Z 05008KT 00/M01 A3034 RMK A01 T00041012  RH  089%=      5-min Rain = 0
KES1 080157Z 06007KT 00/M01 A3034 RMK A01 T00041012  RH  089%=      5-min Rain = 0
KES1 080158Z 06008KT 00/M01 A3034 RMK A01 T00041012  RH  089%=      5-min Rain = 0
KES1 080159Z 06007KT 00/M01 A3034 RMK A01 T00041013  RH  089%=      5-min Rain = 0
KES1 080200Z 05008KT 00/M01 A3034 RMK A01 T00041013  RH  089%=      5-min Rain = 0
KES1 080201Z 06007KT 00/M01 A3035 RMK A01 T00041012  RH  089%=      5-min Rain = 0
KES1 080202Z 06007KT 00/M01 A3035 RMK A01 T00041012  RH  089%=      5-min Rain = 0
KES1 080203Z 06007KT 00/M01 A3035 RMK A01 T00041011  RH  089%=      5-min Rain = 0
KES1 080204Z 06007KT 00/M01 A3035 RMK A01 T00041012  RH  089%=      5-min Rain = 0
KES1 080205Z 05006KT 00/M01 A3035 RMK A01 T00041012  RH  089%=      5-min Rain = 0
KES1 080206Z 05007KT 00/M01 A3035 RMK A01 T00041011  RH  090%=      5-min Rain = 0
KES1 080207Z 05007KT 00/M01 A3035 RMK A01 T00041011  RH  089%=      5-min Rain = 0
KES1 080208Z 05007KT 00/M01 A3035 RMK A01 T00041012  RH  089%=      5-min Rain = 0
KES1 080209Z 06006KT 00/M01 A3035 RMK A01 T00041012  RH  089%=      5-min Rain = 0
KES1 080210Z 05007KT 00/M01 A3035 RMK A01 T00041011  RH  090%=      5-min Rain = 0
KES1 080211Z 06007KT 00/M01 A3035 RMK A01 T00041011  RH  090%=      5-min Rain = 0
KES1 080212Z 06007KT 00/M01 A3035 RMK A01 T00041011  RH  090%=      5-min Rain = 0
KES1 080213Z 06007KT 00/M01 A3035 RMK A01 T00041011  RH  090%=      5-min Rain = 0
KES1 080214Z 06007KT 00/M01 A3035 RMK A01 T00041011  RH  090%=      5-min Rain = 0
KES1 080215Z 06007KT 00/M01 A3035 RMK A01 T00041012  RH  089%=      5-min Rain = 0
KES1 080216Z 05009KT 00/M01 A3035 RMK A01 T00031012  RH  089%=      5-min Rain = 0
KES1 080217Z 05008KT 00/M01 A3035 RMK A01 T00041012  RH  089%=      5-min Rain = 0
KES1 080218Z 05008KT 00/M01 A3035 RMK A01 T00031012  RH  089%=      5-min Rain = 0
KES1 080219Z 05008KT 00/M01 A3035 RMK A01 T00041012  RH  089%=      5-min Rain = 0
KES1 080220Z 05008KT 00/M01 A3035 RMK A01 T00041011  RH  090%=      5-min Rain = 0
KES1 080221Z 05007KT 00/M01 A3035 RMK A01 T00031011  RH  090%=      5-min Rain = 0
KES1 080222Z 05006KT 00/M01 A3035 RMK A01 T00031011  RH  090%=      5-min Rain = 0
KES1 080223Z 05008KT 00/M01 A3035 RMK A01 T00041010  RH  090%=      5-min Rain = 0
KES1 080224Z 05009KT 00/M01 A3034 RMK A01 T00041011  RH  090%=      5-min Rain = 0
KES1 080225Z 06007KT 00/M01 A3034 RMK A01 T00041011  RH  090%=      5-min Rain = 0
KES1 080226Z 05006KT 00/M01 A3034 RMK A01 T00031011  RH  090%=      5-min Rain = 0
KES1 080227Z 05009KT 00/M01 A3034 RMK A01 T00031011  RH  090%=      5-min Rain = 0
KES1 080228Z 05008KT 00/M01 A3034 RMK A01 T00031012  RH  090%=      5-min Rain = 0
KES1 080229Z 05008KT 00/M01 A3034 RMK A01 T00031012  RH  090%=      5-min Rain = 0
KES1 080230Z 06008KT 00/M01 A3034 RMK A01 T00031011  RH  090%=      5-min Rain = 0
KES1 080231Z 05007KT 00/M01 A3034 RMK A01 T00031011  RH  090%=      5-min Rain = 0
KES1 080232Z 05008KT 00/M01 A3034 RMK A01 T00031012  RH  090%=      5-min Rain = 0
KES1 080233Z 04009KT 00/M01 A3034 RMK A01 T00041012  RH  089%=      5-min Rain = 0
KES1 080234Z 05008KT 00/M01 A3034 RMK A01 T00041013  RH  089%=      5-min Rain = 0
KES1 080235Z 04007KT 00/M01 A3034 RMK A01 T00031013  RH  089%=      5-min Rain = 0
KES1 080236Z 04008KT 00/M01 A3034 RMK A01 T00041012  RH  089%=      5-min Rain = 0
KES1 080237Z 06006KT 00/M01 A3034 RMK A01 T00041012  RH  089%=      5-min Rain = 0
KES1 080238Z 05006KT 00/M01 A3034 RMK A01 T00031012  RH  090%=      5-min Rain = 0
KES1 080239Z 04006KT 00/M01 A3034 RMK A01 T00041011  RH  090%=      5-min Rain = 0
KES1 080240Z 04005KT 00/M01 A3034 RMK A01 T00031011  RH  090%=      5-min Rain = 0
KES1 080241Z 04005KT 00/M01 A3034 RMK A01 T00041011  RH  090%=      5-min Rain = 0
KES1 080242Z 03006KT 00/M01 A3034 RMK A01 T00031011  RH  090%=      5-min Rain = 0
KES1 080243Z 04008KT 00/M01 A3034 RMK A01 T00031013  RH  089%=      5-min Rain = 0
KES1 080244Z 04009KT 00/M01 A3034 RMK A01 T00031014  RH  088%=      5-min Rain = 0
KES1 080245Z 04007KT 00/M02 A3034 RMK A01 T00031015  RH  088%=      5-min Rain = 0
KES1 080246Z 03008KT 00/M02 A3034 RMK A01 T00031016  RH  087%=      5-min Rain = 0
KES1 080247Z 04007KT 00/M02 A3035 RMK A01 T00031016  RH  087%=      5-min Rain = 0
KES1 080248Z 04006KT 00/M02 A3035 RMK A01 T00031015  RH  088%=      5-min Rain = 0
KES1 080249Z 05006KT 00/M01 A3035 RMK A01 T00031014  RH  088%=      5-min Rain = 0
KES1 080250Z 04005KT 00/M01 A3035 RMK A01 T00031014  RH  088%=      5-min Rain = 0
KES1 080251Z 04005KT 00/M01 A3035 RMK A01 T00031013  RH  089%=      5-min Rain = 0
KES1 080252Z 03007KT 00/M01 A3035 RMK A01 T00031014  RH  089%=      5-min Rain = 0
KES1 080253Z 04008KT 00/M02 A3035 RMK A01 T00021015  RH  088%=      5-min Rain = 0
KES1 080254Z 03009KT 00/M02 A3035 RMK A01 T00021015  RH  088%=      5-min Rain = 0
KES1 080255Z 04008KT 00/M02 A3035 RMK A01 T00021015  RH  088%=      5-min Rain = 0
KES1 080256Z 05009KT 00/M02 A3035 RMK A01 T00021015  RH  088%=      5-min Rain = 0
KES1 080257Z 05007KT 00/M02 A3035 RMK A01 T00021015  RH  088%=      5-min Rain = 0
KES1 080258Z 05007KT 00/M02 A3036 RMK A01 T00021015  RH  088%=      5-min Rain = 0
KES1 080259Z 05007KT 00/M02 A3036 RMK A01 T00031015  RH  088%=      5-min Rain = 0
KES1 080300Z 05008KT 00/M02 A3036 RMK A01 T00031015  RH  088%=      5-min Rain = 0
KES1 080301Z 05008KT 00/M01 A3035 RMK A01 T00031014  RH  088%=      5-min Rain = 0
KES1 080302Z 05009KT 00/M02 A3035 RMK A01 T00021015  RH  088%=      5-min Rain = 0
KES1 080303Z 04008KT 00/M02 A3035 RMK A01 T00021015  RH  088%=      5-min Rain = 0
KES1 080304Z 04008KT 00/M02 A3035 RMK A01 T00021015  RH  088%=      5-min Rain = 0
KES1 080305Z 04009KT 00/M02 A3035 RMK A01 T00021016  RH  088%=      5-min Rain = 0
KES1 080306Z 03010KT 00/M02 A3035 RMK A01 T00021016  RH  088%=      5-min Rain = 0
KES1 080307Z 04009KT 00/M02 A3036 RMK A01 T00021016  RH  088%=      5-min Rain = 0
KES1 080308Z 03009KT 00/M02 A3036 RMK A01 T00021016  RH  088%=      5-min Rain = 0
KES1 080309Z 03009KT 00/M02 A3036 RMK A01 T00021015  RH  088%=      5-min Rain = 0
KES1 080310Z 04007KT 00/M02 A3036 RMK A01 T00021015  RH  088%=      5-min Rain = 0
KES1 080311Z 03007KT 00/M02 A3036 RMK A01 T00021015  RH  088%=      5-min Rain = 0
KES1 080312Z 03006KT 00/M02 A3036 RMK A01 T00021015  RH  089%=      5-min Rain = 0
KES1 080313Z 03006KT 00/M01 A3036 RMK A01 T00021014  RH  089%=      5-min Rain = 0
KES1 080314Z 03007KT 00/M01 A3036 RMK A01 T00021014  RH  089%=      5-min Rain = 0
KES1 080315Z 03008KT 00/M01 A3036 RMK A01 T00021014  RH  089%=      5-min Rain = 0
KES1 080316Z 03008KT 00/M01 A3036 RMK A01 T00021014  RH  089%=      5-min Rain = 0
KES1 080317Z 04008KT 00/M01 A3036 RMK A01 T00021014  RH  089%=      5-min Rain = 0
KES1 080318Z 03006KT 00/M01 A3036 RMK A01 T00021014  RH  089%=      5-min Rain = 0
KES1 080319Z 04008KT 00/M01 A3036 RMK A01 T00021013  RH  090%=      5-min Rain = 0
KES1 080320Z 04008KT 00/M01 A3036 RMK A01 T00021013  RH  090%=      5-min Rain = 0
KES1 080321Z 04007KT 00/M01 A3036 RMK A01 T00011013  RH  090%=      5-min Rain = 0
KES1 080322Z 04009KT 00/M01 A3036 RMK A01 T00011013  RH  090%=      5-min Rain = 0
KES1 080323Z 04007KT 00/M01 A3036 RMK A01 T00011013  RH  090%=      5-min Rain = 0
KES1 080324Z 04006KT 00/M01 A3036 RMK A01 T00011013  RH  090%=      5-min Rain = 0
KES1 080325Z 04006KT 00/M01 A3036 RMK A01 T00011013  RH  091%=      5-min Rain = 0
KES1 080326Z 03006KT 00/M01 A3036 RMK A01 T00011012  RH  091%=      5-min Rain = 0
KES1 080327Z 04007KT 00/M01 A3036 RMK A01 T00011012  RH  091%=      5-min Rain = 0
KES1 080328Z 04006KT 00/M01 A3036 RMK A01 T00011013  RH  091%=      5-min Rain = 0
KES1 080329Z 04007KT 00/M01 A3036 RMK A01 T00011012  RH  091%=      5-min Rain = 0
KES1 080330Z 04008KT 00/M01 A3037 RMK A01 T00011012  RH  091%=      5-min Rain = 0
KES1 080331Z 04007KT 00/M01 A3037 RMK A01 T00011012  RH  091%=      5-min Rain = 0
KES1 080332Z 03006KT 00/M01 A3037 RMK A01 T00011013  RH  091%=      5-min Rain = 0
KES1 080333Z 04006KT 00/M01 A3037 RMK A01 T00011012  RH  091%=      5-min Rain = 0
KES1 080334Z 04005KT 00/M01 A3037 RMK A01 T00011012  RH  091%=      5-min Rain = 0
KES1 080335Z 04004KT 00/M01 A3037 RMK A01 T00011012  RH  091%=      5-min Rain = 0
KES1 080336Z 03004KT 00/M01 A3037 RMK A01 T00011011  RH  091%=      5-min Rain = 0
KES1 080337Z 03006KT 00/M01 A3037 RMK A01 T00011011  RH  091%=      5-min Rain = 0
KES1 080338Z 03007KT 00/M01 A3037 RMK A01 T00011011  RH  091%=      5-min Rain = 0
KES1 080339Z 03007KT 00/M01 A3037 RMK A01 T00011011  RH  091%=      5-min Rain = 0
KES1 080340Z 02006KT 00/M01 A3037 RMK A01 T00011011  RH  091%=      5-min Rain = 0
KES1 080341Z 03007KT 00/M01 A3037 RMK A01 T00011011  RH  092%=      5-min Rain = 0
KES1 080342Z 03007KT 00/M01 A3036 RMK A01 T00011011  RH  092%=      5-min Rain = 0
KES1 080343Z 03006KT 00/M01 A3036 RMK A01 T00011011  RH  092%=      5-min Rain = 0
KES1 080344Z 03007KT 00/M01 A3036 RMK A01 T00011011  RH  092%=      5-min Rain = 0
KES1 080345Z 03008KT 00/M01 A3036 RMK A01 T00011011  RH  092%=      5-min Rain = 0
KES1 080346Z 03006KT 00/M01 A3036 RMK A01 T00011011  RH  092%=      5-min Rain = 0
KES1 080347Z 03007KT 00/M01 A3036 RMK A01 T00011011  RH  092%=      5-min Rain = 0
KES1 080348Z 04007KT 00/M01 A3035 RMK A01 T00011011  RH  092%=      5-min Rain = 0
KES1 080349Z 03009KT 00/01 A3035 RMK A01 T00000-11  RH  092%=      5-min Rain = 0
KES1 080350Z 03008KT 00/01 A3035 RMK A01 T00000-10  RH  092%=      5-min Rain = 0
KES1 080351Z 03008KT 00/01 A3035 RMK A01 T00-00-11  RH  093%=      5-min Rain = 0
KES1 080352Z 04007KT 00/01 A3035 RMK A01 T00-00-11  RH  093%=      5-min Rain = 0
KES1 080353Z 04006KT 00/01 A3035 RMK A01 T00-00-10  RH  093%=      5-min Rain = 0
KES1 080354Z 03005KT 00/01 A3035 RMK A01 T00-00-10  RH  093%=      5-min Rain = 0
KES1 080355Z 03006KT 00/01 A3035 RMK A01 T00-00-10  RH  093%=      5-min Rain = 0
KES1 080356Z 03007KT 00/01 A3035 RMK A01 T00-000-9  RH  094%=      5-min Rain = 0
KES1 080357Z 03007KT 00/01 A3035 RMK A01 T00-000-9  RH  094%=      5-min Rain = 0
KES1 080358Z 03005KT 00/01 A3035 RMK A01 T00-000-9  RH  094%=      5-min Rain = 0
KES1 080359Z 03006KT 00/01 A3035 RMK A01 T00-000-9  RH  094%=      5-min Rain = 0
KES1 080400Z 03006KT 00/01 A3035 RMK A01 T00-000-9  RH  094%=      5-min Rain = 0
KES1 080401Z 02005KT 00/01 A3035 RMK A01 T00-000-9  RH  094%=      5-min Rain = 0
KES1 080402Z 03006KT M00/M01 A3035 RMK A01 T10011009  RH  094%=      5-min Rain = 0
KES1 080403Z 03005KT M00/M01 A3035 RMK A01 T10011009  RH  094%=      5-min Rain = 0
KES1 080404Z 03005KT M00/M01 A3035 RMK A01 T10011009  RH  094%=      5-min Rain = 0
KES1 080405Z 03005KT M00/M01 A3035 RMK A01 T10011008  RH  095%=      5-min Rain = 0
KES1 080406Z 02006KT M00/M01 A3035 RMK A01 T10011008  RH  095%=      5-min Rain = 0
KES1 080407Z 01006KT M00/M01 A3035 RMK A01 T10011008  RH  095%=      5-min Rain = 0
KES1 080408Z 02006KT M00/M01 A3035 RMK A01 T10011008  RH  095%=      5-min Rain = 0
KES1 080409Z 01006KT M00/M01 A3035 RMK A01 T10011008  RH  095%=      5-min Rain = 0
KES1 080410Z 01006KT M00/M01 A3035 RMK A01 T10011008  RH  095%=      5-min Rain = 0
KES1 080411Z 01005KT 00/01 A3035 RMK A01 T00-000-8  RH  095%=      5-min Rain = 0
KES1 080412Z 01005KT M00/M01 A3035 RMK A01 T10011008  RH  095%=      5-min Rain = 0
KES1 080413Z 01004KT M00/M01 A3035 RMK A01 T10011008  RH  095%=      5-min Rain = 0
KES1 080414Z 01005KT M00/M01 A3035 RMK A01 T10011008  RH  095%=      5-min Rain = 0
KES1 080415Z 01006KT 00/01 A3035 RMK A01 T00-000-7  RH  095%=      5-min Rain = 0
KES1 080416Z 01005KT M00/M01 A3035 RMK A01 T10011008  RH  095%=      5-min Rain = 0
KES1 080417Z 35005KT M00/M01 A3035 RMK A01 T10011007  RH  095%=      5-min Rain = 0
KES1 080418Z 00004KT 00/01 A3035 RMK A01 T00-000-7  RH  095%=      5-min Rain = 0
KES1 080419Z 35005KT 00/01 A3035 RMK A01 T000000-6  RH  095%=      5-min Rain = 0
KES1 080420Z 00005KT 00/01 A3035 RMK A01 T000000-6  RH  095%=      5-min Rain = 0
KES1 080421Z 36007KT 00/01 A3035 RMK A01 T000000-6  RH  095%=      5-min Rain = 0
KES1 080422Z 01007KT 00/01 A3035 RMK A01 T000000-7  RH  095%=      5-min Rain = 0
KES1 080423Z 01006KT 00/01 A3035 RMK A01 T000000-7  RH  095%=      5-min Rain = 0
KES1 080424Z 00006KT 00/01 A3035 RMK A01 T000000-7  RH  095%=      5-min Rain = 0
KES1 080425Z 36006KT 00/01 A3035 RMK A01 T000000-7  RH  095%=      5-min Rain = 0
KES1 080426Z 35007KT 00/01 A3035 RMK A01 T000000-7  RH  095%=      5-min Rain = 0
KES1 080427Z 36006KT 00/01 A3035 RMK A01 T000000-8  RH  094%=      5-min Rain = 0
KES1 080428Z 36006KT 00/01 A3035 RMK A01 T000000-8  RH  094%=      5-min Rain = 0
KES1 080429Z 00007KT 00/M01 A3035 RMK A01 T00011008  RH  094%=      5-min Rain = 0
KES1 080430Z 01006KT 00/M01 A3035 RMK A01 T00011008  RH  094%=      5-min Rain = 0
KES1 080431Z 00005KT 00/M01 A3035 RMK A01 T00011008  RH  094%=      5-min Rain = 0
KES1 080432Z 01005KT 00/M01 A3035 RMK A01 T00011008  RH  094%=      5-min Rain = 0
KES1 080433Z 01006KT 00/01 A3035 RMK A01 T000000-9  RH  094%=      5-min Rain = 0
KES1 080434Z 01006KT 00/01 A3035 RMK A01 T000000-9  RH  093%=      5-min Rain = 0
KES1 080435Z 01005KT 00/01 A3035 RMK A01 T000000-9  RH  093%=      5-min Rain = 0
KES1 080436Z 01006KT 00/01 A3035 RMK A01 T00000-10  RH  093%=      5-min Rain = 0
KES1 080437Z 00006KT 00/01 A3035 RMK A01 T00000-10  RH  093%=      5-min Rain = 0
KES1 080438Z 00008KT 00/01 A3035 RMK A01 T00000-11  RH  092%=      5-min Rain = 0
KES1 080439Z 01007KT 00/01 A3035 RMK A01 T00000-11  RH  092%=      5-min Rain = 0
KES1 080440Z 01007KT 00/01 A3035 RMK A01 T00000-12  RH  092%=      5-min Rain = 0
KES1 080441Z 00007KT 00/01 A3035 RMK A01 T00000-12  RH  091%=      5-min Rain = 0
KES1 080442Z 01006KT 00/01 A3035 RMK A01 T00000-12  RH  091%=      5-min Rain = 0
KES1 080443Z 01008KT 00/01 A3035 RMK A01 T00000-12  RH  092%=      5-min Rain = 0
KES1 080444Z 00006KT 00/01 A3035 RMK A01 T00-00-12  RH  092%=      5-min Rain = 0
KES1 080445Z 01006KT 00/01 A3035 RMK A01 T00-00-12  RH  092%=      5-min Rain = 0
KES1 080446Z 01006KT 00/01 A3035 RMK A01 T00000-11  RH  092%=      5-min Rain = 0
KES1 080447Z 01008KT 00/01 A3035 RMK A01 T00-00-11  RH  092%=      5-min Rain = 0
KES1 080448Z 01007KT 00/01 A3035 RMK A01 T00-00-11  RH  092%=      5-min Rain = 0
KES1 080449Z 01007KT 00/01 A3035 RMK A01 T00-00-12  RH  092%=      5-min Rain = 0
KES1 080450Z 01008KT 00/01 A3035 RMK A01 T00-00-11  RH  092%=      5-min Rain = 0
KES1 080451Z 00007KT 00/01 A3035 RMK A01 T00-00-11  RH  092%=      5-min Rain = 0
KES1 080452Z 01006KT 00/01 A3035 RMK A01 T00-00-11  RH  092%=      5-min Rain = 0
KES1 080453Z 01005KT 00/01 A3035 RMK A01 T00-00-11  RH  093%=      5-min Rain = 0
KES1 080454Z 01005KT 00/01 A3035 RMK A01 T00-00-10  RH  093%=      5-min Rain = 0
KES1 080455Z 01006KT 00/01 A3035 RMK A01 T00-00-10  RH  093%=      5-min Rain = 0
KES1 080456Z 01007KT 00/01 A3035 RMK A01 T00-00-10  RH  093%=      5-min Rain = 0
KES1 080457Z 01008KT 00/01 A3035 RMK A01 T00-00-10  RH  093%=      5-min Rain = 0
KES1 080458Z 01007KT 00/01 A3035 RMK A01 T00-00-10  RH  093%=      5-min Rain = 0
KES1 080459Z 01005KT 00/01 A3035 RMK A01 T00-00-10  RH  093%=      5-min Rain = 0
KES1 080500Z 01006KT 00/01 A3035 RMK A01 T00-00-10  RH  093%=      5-min Rain = 0
KES1 080501Z 01007KT 00/01 A3035 RMK A01 T00-00-10  RH  093%=      5-min Rain = 0
KES1 080502Z 01007KT 00/01 A3035 RMK A01 T00-00-10  RH  093%=      5-min Rain = 0
KES1 080503Z 01007KT 00/01 A3035 RMK A01 T00-00-10  RH  093%=      5-min Rain = 0
KES1 080504Z 01006KT 00/01 A3035 RMK A01 T00-00-10  RH  093%=      5-min Rain = 0
KES1 080505Z 01005KT 00/01 A3035 RMK A01 T00-00-10  RH  093%=      5-min Rain = 0
KES1 080506Z 01006KT 00/01 A3035 RMK A01 T00-000-9  RH  094%=      5-min Rain = 0
KES1 080507Z 01006KT 00/01 A3035 RMK A01 T00-000-9  RH  094%=      5-min Rain = 0
KES1 080508Z 01007KT 00/01 A3035 RMK A01 T00-000-9  RH  094%=      5-min Rain = 0
KES1 080509Z 01007KT 00/01 A3035 RMK A01 T000000-9  RH  094%=      5-min Rain = 0
KES1 080510Z 02008KT 00/01 A3035 RMK A01 T00-000-9  RH  094%=      5-min Rain = 0
KES1 080511Z 02005KT 00/01 A3034 RMK A01 T00-000-9  RH  094%=      5-min Rain = 0
KES1 080512Z 01007KT 00/01 A3034 RMK A01 T00-000-9  RH  094%=      5-min Rain = 0
KES1 080513Z 02007KT 00/01 A3034 RMK A01 T00-000-9  RH  094%=      5-min Rain = 0
KES1 080514Z 02005KT 00/01 A3034 RMK A01 T00-000-9  RH  094%=      5-min Rain = 0
KES1 080515Z 03006KT 00/01 A3034 RMK A01 T000000-8  RH  094%=      5-min Rain = 0
KES1 080516Z 02006KT 00/01 A3034 RMK A01 T00-000-9  RH  094%=      5-min Rain = 0
KES1 080517Z 02006KT 00/01 A3034 RMK A01 T00-000-9  RH  094%=      5-min Rain = 0
KES1 080518Z 02005KT 00/01 A3034 RMK A01 T00-000-8  RH  094%=      5-min Rain = 0
KES1 080519Z 02006KT 00/01 A3034 RMK A01 T00-000-8  RH  094%=      5-min Rain = 0
KES1 080520Z 02008KT 00/01 A3034 RMK A01 T00-000-8  RH  094%=      5-min Rain = 0
KES1 080521Z 02008KT M00/M01 A3034 RMK A01 T10011009  RH  094%=      5-min Rain = 0
KES1 080522Z 02007KT M00/M01 A3034 RMK A01 T10011009  RH  094%=      5-min Rain = 0
KES1 080523Z 02007KT M00/M01 A3034 RMK A01 T10011009  RH  094%=      5-min Rain = 0
KES1 080524Z 02008KT 00/01 A3034 RMK A01 T00-000-9  RH  094%=      5-min Rain = 0
KES1 080525Z 03005KT M00/M01 A3034 RMK A01 T10011009  RH  094%=      5-min Rain = 0
KES1 080526Z 02007KT M00/M01 A3034 RMK A01 T10011009  RH  094%=      5-min Rain = 0
KES1 080527Z 02009KT M00/M01 A3034 RMK A01 T10011009  RH  094%=      5-min Rain = 0
KES1 080528Z 02008KT M00/M01 A3034 RMK A01 T10011009  RH  094%=      5-min Rain = 0
KES1 080529Z 02008KT M00/M01 A3034 RMK A01 T10011009  RH  094%=      5-min Rain = 0
KES1 080530Z 02007KT M00/M01 A3034 RMK A01 T10011009  RH  094%=      5-min Rain = 0
KES1 080531Z 02008KT M00/M01 A3034 RMK A01 T10011009  RH  094%=      5-min Rain = 0
KES1 080532Z 03007KT 00/01 A3034 RMK A01 T00-000-9  RH  094%=      5-min Rain = 0
KES1 080533Z 03006KT M00/M01 A3034 RMK A01 T10011009  RH  094%=      5-min Rain = 0
KES1 080534Z 02006KT M00/M01 A3034 RMK A01 T10011009  RH  094%=      5-min Rain = 0
KES1 080535Z 02009KT M00/M01 A3034 RMK A01 T10011009  RH  094%=      5-min Rain = 0
KES1 080536Z 03008KT M00/M01 A3034 RMK A01 T10011009  RH  094%=      5-min Rain = 0
KES1 080537Z 02008KT M00/M01 A3034 RMK A01 T10011009  RH  094%=      5-min Rain = 0
KES1 080538Z 02007KT M00/M01 A3034 RMK A01 T10011009  RH  094%=      5-min Rain = 0
KES1 080539Z 02007KT 00/01 A3034 RMK A01 T00-000-9  RH  094%=      5-min Rain = 0
KES1 080540Z 02008KT 00/01 A3034 RMK A01 T00-000-9  RH  094%=      5-min Rain = 0
KES1 080541Z 03007KT 00/01 A3034 RMK A01 T00-000-9  RH  094%=      5-min Rain = 0
KES1 080542Z 02007KT M00/M01 A3034 RMK A01 T10011009  RH  094%=      5-min Rain = 0
KES1 080543Z 02009KT M00/M01 A3034 RMK A01 T10011009  RH  094%=      5-min Rain = 0
KES1 080544Z 02009KT 00/01 A3034 RMK A01 T00-000-9  RH  094%=      5-min Rain = 0
KES1 080545Z 02009KT M00/M01 A3034 RMK A01 T10011009  RH  094%=      5-min Rain = 0
KES1 080546Z 03007KT M00/M01 A3034 RMK A01 T10011010  RH  094%=      5-min Rain = 0
KES1 080547Z 02006KT M00/M01 A3034 RMK A01 T10011009  RH  094%=      5-min Rain = 0
KES1 080548Z 02006KT M00/M01 A3034 RMK A01 T10011009  RH  094%=      5-min Rain = 0
KES1 080549Z 02008KT M00/M01 A3034 RMK A01 T10011009  RH  094%=      5-min Rain = 0
KES1 080550Z 02010KT M00/M01 A3034 RMK A01 T10011009  RH  094%=      5-min Rain = 0
KES1 080551Z 02008KT M00/M01 A3034 RMK A01 T10011010  RH  094%=      5-min Rain = 0
KES1 080552Z 02007KT M00/M01 A3035 RMK A01 T10011010  RH  094%=      5-min Rain = 0
KES1 080553Z 01006KT M00/M01 A3035 RMK A01 T10011010  RH  094%=      5-min Rain = 0
KES1 080554Z 01006KT M00/M01 A3035 RMK A01 T10011010  RH  094%=      5-min Rain = 0
KES1 080555Z 00007KT 00/01 A3035 RMK A01 T00-000-9  RH  094%=      5-min Rain = 0
KES1 080556Z 01009KT 00/01 A3035 RMK A01 T00-000-9  RH  094%=      5-min Rain = 0
KES1 080557Z 01010KT 00/01 A3035 RMK A01 T00-000-9  RH  094%=      5-min Rain = 0
KES1 080558Z 02009KT M00/M01 A3035 RMK A01 T10011010  RH  093%=      5-min Rain = 0
KES1 080559Z 01008KT M00/M01 A3035 RMK A01 T10011011  RH  093%=      5-min Rain = 0

Page generated in 0.0717 seconds.